Wetterdaten: Freitag, 21.02.2020
Datum Zeit Temp. Aussen Temp. o. S. Temp +5cm Feuchte Auss Luftdruck Regen Sonnenschein Regendauer Solar Windben Empfang
21.02.2020 00:00 4,2 C 2,8 C 2,8 C 94 % 1017,1 hPa 0,0 l/m 0 min 2 min 0 W/m 25,7 km/h (4 Bft) 97,87 %
21.02.2020 00:02 4,2 C 2,8 C 2,8 C 94 % 1017,2 hPa 0,0 l/m 0 min 2 min 0 W/m 19,3 km/h (3 Bft) 97,30 %
21.02.2020 00:04 4,2 C 2,8 C 2,8 C 94 % 1017,4 hPa 0,0 l/m 0 min 2 min 0 W/m 25,7 km/h (4 Bft) 97,87 %
21.02.2020 00:08 4,1 C 2,8 C 2,8 C 94 % 1017,5 hPa 0,0 l/m 0 min 4 min 0 W/m 25,7 km/h (4 Bft) 95,70 %
21.02.2020 00:10 4,1 C 2,8 C 2,8 C 94 % 1017,8 hPa 0,0 l/m 0 min 2 min 0 W/m 25,7 km/h (4 Bft) 95,74 %
21.02.2020 00:12 4,1 C 2,8 C 2,8 C 94 % 1017,5 hPa 0,0 l/m 0 min 2 min 0 W/m 19,3 km/h (3 Bft) 95,74 %
21.02.2020 00:14 4,1 C 2,8 C 2,2 C 94 % 1017,6 hPa 0,0 l/m 0 min 2 min 0 W/m 22,5 km/h (4 Bft) 95,74 %
21.02.2020 00:16 4,1 C 2,8 C 2,2 C 94 % 1017,7 hPa 0,0 l/m 0 min 2 min 0 W/m 16,1 km/h (3 Bft) 93,62 %
21.02.2020 00:18 4,1 C 2,8 C 2,2 C 94 % 1017,8 hPa 0,0 l/m 0 min 0 min 0 W/m 19,3 km/h (3 Bft) 95,65 %
21.02.2020 00:20 4,1 C 2,8 C 2,2 C 94 % 1017,9 hPa 0,0 l/m 0 min 0 min 0 W/m 16,1 km/h (3 Bft) 96,00 %
21.02.2020 00:22 4,1 C 2,8 C 2,2 C 94 % 1017,9 hPa 0,0 l/m 0 min 0 min 0 W/m 19,3 km/h (3 Bft) 93,62 %
21.02.2020 00:24 4,0 C 2,8 C 2,2 C 94 % 1018,0 hPa 0,0 l/m 0 min 0 min 0 W/m 25,7 km/h (4 Bft) 95,74 %
21.02.2020 00:26 4,0 C 2,8 C 2,2 C 94 % 1018,0 hPa 0,0 l/m 0 min 0 min 0 W/m 22,5 km/h (4 Bft) 95,74 %
21.02.2020 00:28 4,0 C 2,8 C 2,2 C 93 % 1018,1 hPa 0,0 l/m 0 min 0 min 0 W/m 19,3 km/h (3 Bft) 95,65 %
21.02.2020 00:30 4,0 C 2,8 C 2,2 C 93 % 1018,3 hPa 0,0 l/m 0 min 0 min 0 W/m 19,3 km/h (3 Bft) 89,36 %
21.02.2020 00:32 4,0 C 2,8 C 2,2 C 94 % 1018,3 hPa 0,0 l/m 0 min 0 min 0 W/m 16,1 km/h (3 Bft) 95,74 %
21.02.2020 00:34 3,9 C 2,8 C 2,2 C 93 % 1018,3 hPa 0,0 l/m 0 min 0 min 0 W/m 12,9 km/h (3 Bft) 95,74 %
21.02.2020 00:36 3,9 C 2,8 C 2,2 C 93 % 1018,4 hPa 0,0 l/m 0 min 0 min 0 W/m 16,1 km/h (3 Bft) 95,74 %
21.02.2020 00:38 3,9 C 2,8 C 2,2 C 93 % 1018,4 hPa 0,0 l/m 0 min 0 min 0 W/m 16,1 km/h (3 Bft) 95,74 %
21.02.2020 00:40 3,9 C 2,8 C 2,2 C 93 % 1018,5 hPa 0,0 l/m 0 min 0 min 0 W/m 16,1 km/h (3 Bft) 93,48 %
21.02.2020 00:42 3,9 C 2,8 C 2,2 C 93 % 1018,6 hPa 0,0 l/m 0 min 0 min 0 W/m 22,5 km/h (4 Bft) 97,87 %
21.02.2020 00:44 3,9 C 2,8 C 2,2 C 93 % 1018,6 hPa 0,0 l/m 0 min 0 min 0 W/m 16,1 km/h (3 Bft) 97,87 %
21.02.2020 00:46 3,9 C 2,8 C 2,2 C 93 % 1018,7 hPa 0,0 l/m 0 min 0 min 0 W/m 22,5 km/h (4 Bft) 100,00 %
21.02.2020 00:48 3,9 C 2,8 C 2,2 C 93 % 1018,7 hPa 0,0 l/m 0 min 0 min 0 W/m 12,9 km/h (3 Bft) 97,87 %
21.02.2020 00:50 3,9 C 2,8 C 2,2 C 93 % 1018,8 hPa 0,0 l/m 0 min 0 min 0 W/m 16,1 km/h (3 Bft) 97,87 %
21.02.2020 00:52 3,9 C 2,8 C 2,2 C 93 % 1018,8 hPa 0,0 l/m 0 min 0 min 0 W/m 19,3 km/h (3 Bft) 100,00 %
21.02.2020 00:54 3,9 C 2,8 C 2,2 C 93 % 1018,9 hPa 0,0 l/m 0 min 0 min 0 W/m 12,9 km/h (3 Bft) 100,00 %
21.02.2020 00:56 3,9 C 2,8 C 2,2 C 93 % 1019,0 hPa 0,0 l/m 0 min 0 min 0 W/m 19,3 km/h (3 Bft) 97,87 %
21.02.2020 00:58 3,8 C 2,8 C 2,2 C 93 % 1018,9 hPa 0,0 l/m 0 min 0 min 0 W/m 12,9 km/h (3 Bft) 100,00 %
21.02.2020 01:00 3,9 C 2,8 C 2,2 C 93 % 1019,0 hPa 0,0 l/m 0 min 0 min 0 W/m 16,1 km/h (3 Bft) 100,00 %
21.02.2020 01:02 3,8 C 2,8 C 2,2 C 93 % 1019,1 hPa 0,0 l/m 0 min 0 min 0 W/m 12,9 km/h (3 Bft) 100,00 %
21.02.2020 01:04 3,8 C 2,8 C 2,2 C 93 % 1019,2 hPa 0,0 l/m 0 min 0 min 0 W/m 9,7 km/h (2 Bft) 100,00 %
21.02.2020 01:06 3,8 C 2,8 C 2,2 C 93 % 1019,2 hPa 0,0 l/m 0 min 0 min 0 W/m 16,1 km/h (3 Bft) 100,00 %
21.02.2020 01:08 3,8 C 2,8 C 2,2 C 93 % 1019,2 hPa 0,0 l/m 0 min 0 min 0 W/m 9,7 km/h (2 Bft) 97,87 %
21.02.2020 01:10 3,8 C 2,8 C 2,2 C 93 % 1019,2 hPa 0,0 l/m 0 min 0 min 0 W/m 16,1 km/h (3 Bft) 97,87 %
21.02.2020 01:12 3,8 C 2,8 C 2,2 C 93 % 1019,3 hPa 0,0 l/m 0 min 0 min 0 W/m 22,5 km/h (4 Bft) 100,00 %
21.02.2020 01:14 3,8 C 2,8 C 2,2 C 93 % 1019,5 hPa 0,0 l/m 0 min 0 min 0 W/m 19,3 km/h (3 Bft) 97,83 %
21.02.2020 01:16 3,8 C 2,8 C 2,2 C 93 % 1019,3 hPa 0,0 l/m 0 min 0 min 0 W/m 6,4 km/h (2 Bft) 93,62 %
21.02.2020 01:18 3,8 C 2,8 C 2,2 C 93 % 1019,5 hPa 0,0 l/m 0 min 0 min 0 W/m 16,1 km/h (3 Bft) 97,87 %
21.02.2020 01:20 3,8 C 2,8 C 2,2 C 92 % 1019,4 hPa 0,0 l/m 0 min 0 min 0 W/m 16,1 km/h (3 Bft) 97,87 %
21.02.2020 01:22 3,8 C 2,8 C 2,2 C 92 % 1019,5 hPa 0,0 l/m 0 min 0 min 0 W/m 12,9 km/h (3 Bft) 97,87 %
21.02.2020 01:24 3,8 C 2,8 C 2,2 C 92 % 1019,5 hPa 0,0 l/m 0 min 0 min 0 W/m 12,9 km/h (3 Bft) 97,87 %
21.02.2020 01:26 3,8 C 2,8 C 2,2 C 92 % 1019,6 hPa 0,0 l/m 0 min 0 min 0 W/m 12,9 km/h (3 Bft) 97,83 %
21.02.2020 01:28 3,8 C 2,8 C 2,2 C 92 % 1019,6 hPa 0,0 l/m 0 min 0 min 0 W/m 6,4 km/h (2 Bft) 95,74 %
21.02.2020 01:30 3,8 C 2,8 C 2,2 C 92 % 1019,6 hPa 0,0 l/m 0 min 0 min 0 W/m 16,1 km/h (3 Bft) 97,87 %
21.02.2020 01:32 3,8 C 2,8 C 2,2 C 92 % 1019,7 hPa 0,0 l/m 0 min 0 min 0 W/m 22,5 km/h (4 Bft) 97,87 %
21.02.2020 01:34 3,8 C 2,8 C 2,2 C 92 % 1019,7 hPa 0,0 l/m 0 min 0 min 0 W/m 19,3 km/h (3 Bft) 97,87 %
21.02.2020 01:36 3,7 C 2,2 C 2,2 C 92 % 1019,7 hPa 0,0 l/m 0 min 0 min 0 W/m 19,3 km/h (3 Bft) 95,74 %
21.02.2020 01:38 3,7 C 2,2 C 1,7 C 92 % 1019,8 hPa 0,0 l/m 0 min 0 min 0 W/m 6,4 km/h (2 Bft) 95,65 %
21.02.2020 01:40 3,7 C 2,2 C 1,7 C 92 % 1019,8 hPa 0,0 l/m 0 min 0 min 0 W/m 6,4 km/h (2 Bft) 97,87 %
21.02.2020 01:42 3,7 C 2,2 C 1,7 C 92 % 1019,9 hPa 0,0 l/m 0 min 0 min 0 W/m 6,4 km/h (2 Bft) 97,87 %
21.02.2020 01:44 3,7 C 2,2 C 1,7 C 92 % 1019,9 hPa 0,0 l/m 0 min 0 min 0 W/m 16,1 km/h (3 Bft) 97,87 %
21.02.2020 01:46 3,7 C 2,2 C 2,2 C 92 % 1020,1 hPa 0,0 l/m 0 min 0 min 0 W/m 16,1 km/h (3 Bft) 97,87 %
21.02.2020 01:48 3,6 C 2,2 C 2,2 C 92 % 1020,0 hPa 0,0 l/m 0 min 0 min 0 W/m 12,9 km/h (3 Bft) 97,87 %
21.02.2020 01:50 3,6 C 2,2 C 1,7 C 92 % 1020,1 hPa 0,0 l/m 0 min 0 min 0 W/m 12,9 km/h (3 Bft) 97,83 %
21.02.2020 01:52 3,6 C 2,2 C 1,7 C 92 % 1020,1 hPa 0,0 l/m 0 min 0 min 0 W/m 12,9 km/h (3 Bft) 97,87 %
21.02.2020 01:54 3,6 C 2,2 C 1,7 C 92 % 1020,2 hPa 0,0 l/m 0 min 0 min 0 W/m 19,3 km/h (3 Bft) 97,87 %
21.02.2020 01:56 3,6 C 2,2 C 1,7 C 92 % 1020,3 hPa 0,0 l/m 0 min 0 min 0 W/m 12,9 km/h (3 Bft) 95,74 %
21.02.2020 01:58 3,6 C 2,2 C 1,7 C 92 % 1020,3 hPa 0,0 l/m 0 min 0 min 0 W/m 16,1 km/h (3 Bft) 97,87 %
21.02.2020 02:00 3,6 C 2,2 C 1,7 C 92 % 1020,3 hPa 0,0 l/m 0 min 0 min 0 W/m 12,9 km/h (3 Bft) 97,87 %
21.02.2020 02:02 3,5 C 2,2 C 1,7 C 92 % 1020,3 hPa 0,0 l/m 0 min 0 min 0 W/m 12,9 km/h (3 Bft) 97,83 %
21.02.2020 02:04 3,5 C 2,2 C 1,7 C 92 % 1020,5 hPa 0,0 l/m 0 min 0 min 0 W/m 25,7 km/h (4 Bft) 97,87 %
21.02.2020 02:06 3,5 C 2,2 C 1,7 C 92 % 1020,5 hPa 0,0 l/m 0 min 0 min 0 W/m 12,9 km/h (3 Bft) 97,87 %
21.02.2020 02:08 3,5 C 2,2 C 1,7 C 92 % 1020,5 hPa 0,0 l/m 0 min 0 min 0 W/m 19,3 km/h (3 Bft) 97,87 %
21.02.2020 02:10 3,4 C 2,2 C 1,7 C 92 % 1020,5 hPa 0,0 l/m 0 min 0 min 0 W/m 16,1 km/h (3 Bft) 95,74 %
21.02.2020 02:12 3,4 C 2,2 C 1,7 C 92 % 1020,5 hPa 0,0 l/m 0 min 0 min 0 W/m 9,7 km/h (2 Bft) 97,83 %
21.02.2020 02:14 3,4 C 2,2 C 1,7 C 92 % 1020,7 hPa 0,0 l/m 0 min 0 min 0 W/m 16,1 km/h (3 Bft) 97,87 %
21.02.2020 02:16 3,4 C 2,2 C 1,7 C 92 % 1020,5 hPa 0,0 l/m 0 min 0 min 0 W/m 12,9 km/h (3 Bft) 95,74 %
21.02.2020 02:18 3,4 C 2,2 C 1,7 C 92 % 1020,6 hPa 0,0 l/m 0 min 0 min 0 W/m 12,9 km/h (3 Bft) 95,74 %
21.02.2020 02:20 3,4 C 2,2 C 1,7 C 93 % 1020,7 hPa 0,0 l/m 0 min 0 min 0 W/m 9,7 km/h (2 Bft) 97,87 %
21.02.2020 02:22 3,4 C 2,2 C 1,7 C 93 % 1020,6 hPa 0,0 l/m 0 min 0 min 0 W/m 6,4 km/h (2 Bft) 97,87 %
21.02.2020 02:24 3,4 C 2,2 C 1,7 C 93 % 1020,6 hPa 0,0 l/m 0 min 0 min 0 W/m 12,9 km/h (3 Bft) 97,83 %
21.02.2020 02:26 3,4 C 2,2 C 1,7 C 93 % 1020,7 hPa 0,0 l/m 0 min 0 min 0 W/m 19,3 km/h (3 Bft) 97,87 %
21.02.2020 02:28 3,4 C 2,2 C 1,7 C 93 % 1020,8 hPa 0,0 l/m 0 min 0 min 0 W/m 16,1 km/h (3 Bft) 95,74 %
21.02.2020 02:30 3,4 C 2,2 C 1,7 C 93 % 1020,8 hPa 0,0 l/m 0 min 0 min 0 W/m 16,1 km/h (3 Bft) 97,87 %
21.02.2020 02:32 3,4 C 2,2 C 1,7 C 93 % 1020,9 hPa 0,0 l/m 0 min 0 min 0 W/m 19,3 km/h (3 Bft) 95,74 %
21.02.2020 02:34 3,4 C 2,2 C 1,7 C 93 % 1020,9 hPa 0,0 l/m 0 min 0 min 0 W/m 12,9 km/h (3 Bft) 97,87 %
21.02.2020 02:36 3,4 C 2,2 C 1,7 C 93 % 1020,9 hPa 0,0 l/m 0 min 0 min 0 W/m 16,1 km/h (3 Bft) 97,83 %
21.02.2020 02:38 3,4 C 2,2 C 1,7 C 93 % 1020,9 hPa 0,0 l/m 0 min 0 min 0 W/m 19,3 km/h (3 Bft) 97,87 %
21.02.2020 02:40 3,4 C 2,2 C 1,7 C 93 % 1020,9 hPa 0,0 l/m 0 min 0 min 0 W/m 19,3 km/h (3 Bft) 97,87 %
21.02.2020 02:42 3,4 C 2,2 C 1,7 C 93 % 1021,0 hPa 0,0 l/m 0 min 0 min 0 W/m 16,1 km/h (3 Bft) 97,87 %
21.02.2020 02:44 3,4 C 2,2 C 1,7 C 93 % 1021,1 hPa 0,0 l/m 0 min 0 min 0 W/m 19,3 km/h (3 Bft) 97,87 %
21.02.2020 02:46 3,4 C 2,2 C 1,7 C 93 % 1021,0 hPa 0,0 l/m 0 min 0 min 0 W/m 19,3 km/h (3 Bft) 93,62 %
21.02.2020 02:48 3,4 C 2,2 C 1,7 C 93 % 1021,2 hPa 0,0 l/m 0 min 0 min 0 W/m 16,1 km/h (3 Bft) 48,84 %
21.02.2020 02:50 3,4 C 2,2 C 1,7 C 93 % 1021,2 hPa 0,0 l/m 0 min 0 min 0 W/m 22,5 km/h (4 Bft) 95,74 %
21.02.2020 02:52 3,4 C 2,2 C 1,7 C 93 % 1021,2 hPa 0,0 l/m 0 min 0 min 0 W/m 16,1 km/h (3 Bft) 95,74 %
21.02.2020 02:54 3,4 C 2,2 C 1,7 C 93 % 1021,2 hPa 0,0 l/m 0 min 0 min 0 W/m 16,1 km/h (3 Bft) 95,74 %
21.02.2020 02:56 3,4 C 2,2 C 1,7 C 93 % 1021,2 hPa 0,0 l/m 0 min 0 min 0 W/m 25,7 km/h (4 Bft) 95,74 %
21.02.2020 02:58 3,4 C 2,2 C 1,7 C 92 % 1021,2 hPa 0,0 l/m 0 min 0 min 0 W/m 12,9 km/h (3 Bft) 93,62 %
21.02.2020 03:00 3,4 C 2,2 C 1,7 C 92 % 1021,2 hPa 0,0 l/m 0 min 0 min 0 W/m 19,3 km/h (3 Bft) 95,65 %
21.02.2020 03:02 3,4 C 2,2 C 1,7 C 92 % 1021,2 hPa 0,0 l/m 0 min 0 min 0 W/m 6,4 km/h (2 Bft) 97,87 %
21.02.2020 03:04 3,4 C 2,2 C 1,7 C 92 % 1021,2 hPa 0,0 l/m 0 min 0 min 0 W/m 12,9 km/h (3 Bft) 95,74 %
21.02.2020 03:06 3,3 C 2,2 C 1,7 C 92 % 1021,3 hPa 0,0 l/m 0 min 0 min 0 W/m 12,9 km/h (3 Bft) 97,87 %
21.02.2020 03:08 3,3 C 2,2 C 1,7 C 92 % 1021,3 hPa 0,0 l/m 0 min 0 min 0 W/m 16,1 km/h (3 Bft) 97,87 %
21.02.2020 03:10 3,3 C 2,2 C 1,7 C 92 % 1021,3 hPa 0,0 l/m 0 min 0 min 0 W/m 16,1 km/h (3 Bft) 97,87 %
21.02.2020 03:12 3,3 C 2,2 C 1,7 C 92 % 1021,3 hPa 0,0 l/m 0 min 0 min 0 W/m 12,9 km/h (3 Bft) 97,83 %
21.02.2020 03:14 3,3 C 2,2 C 1,7 C 92 % 1021,5 hPa 0,0 l/m 0 min 0 min 0 W/m 9,7 km/h (2 Bft) 97,87 %
21.02.2020 03:16 3,3 C 2,2 C 1,7 C 92 % 1021,5 hPa 0,0 l/m 0 min 0 min 0 W/m 16,1 km/h (3 Bft) 95,74 %
21.02.2020 03:18 3,3 C 2,2 C 1,7 C 92 % 1021,5 hPa 0,0 l/m 0 min 0 min 0 W/m 12,9 km/h (3 Bft) 97,87 %
21.02.2020 03:20 3,3 C 2,2 C 1,7 C 92 % 1021,6 hPa 0,0 l/m 0 min 0 min 0 W/m 12,9 km/h (3 Bft) 97,87 %
21.02.2020 03:22 3,3 C 2,2 C 1,7 C 92 % 1021,7 hPa 0,0 l/m 0 min 0 min 0 W/m 19,3 km/h (3 Bft) 97,83 %
21.02.2020 03:24 3,3 C 2,2 C 1,7 C 92 % 1021,7 hPa 0,0 l/m 0 min 0 min 0 W/m 16,1 km/h (3 Bft) 97,87 %
21.02.2020 03:26 3,3 C 2,2 C 1,7 C 92 % 1021,7 hPa 0,0 l/m 0 min 0 min 0 W/m 19,3 km/h (3 Bft) 95,74 %
21.02.2020 03:28 3,3 C 2,2 C 1,7 C 92 % 1021,7 hPa 0,0 l/m 0 min 0 min 0 W/m 12,9 km/h (3 Bft) 97,87 %
21.02.2020 03:30 3,2 C 2,2 C 1,7 C 92 % 1021,7 hPa 0,0 l/m 0 min 0 min 0 W/m 16,1 km/h (3 Bft) 97,87 %
21.02.2020 03:32 3,2 C 2,2 C 1,7 C 92 % 1021,8 hPa 0,0 l/m 0 min 0 min 0 W/m 22,5 km/h (4 Bft) 97,87 %
21.02.2020 03:34 3,2 C 2,2 C 1,7 C 92 % 1021,8 hPa 0,0 l/m 0 min 0 min 0 W/m 16,1 km/h (3 Bft) 95,65 %
21.02.2020 03:36 3,2 C 2,2 C 1,7 C 92 % 1021,9 hPa 0,0 l/m 0 min 0 min 0 W/m 12,9 km/h (3 Bft) 100,00 %
21.02.2020 03:38 3,2 C 2,2 C 1,7 C 92 % 1022,0 hPa 0,0 l/m 0 min 0 min 0 W/m 6,4 km/h (2 Bft) 100,00 %
21.02.2020 03:40 3,2 C 2,2 C 1,7 C 93 % 1021,9 hPa 0,0 l/m 0 min 0 min 0 W/m 19,3 km/h (3 Bft) 97,87 %
21.02.2020 03:42 3,2 C 2,2 C 1,7 C 93 % 1022,0 hPa 0,0 l/m 0 min 0 min 0 W/m 9,7 km/h (2 Bft) 100,00 %
21.02.2020 03:44 3,2 C 2,2 C 1,7 C 93 % 1022,0 hPa 0,0 l/m 0 min 0 min 0 W/m 12,9 km/h (3 Bft) 100,00 %
21.02.2020 03:46 3,1 C 2,2 C 1,7 C 93 % 1022,1 hPa 0,0 l/m 0 min 0 min 0 W/m 9,7 km/h (2 Bft) 100,00 %
21.02.2020 03:48 3,1 C 2,2 C 1,7 C 93 % 1022,0 hPa 0,0 l/m 0 min 0 min 0 W/m 12,9 km/h (3 Bft) 100,00 %
21.02.2020 03:50 3,1 C 2,2 C 1,7 C 93 % 1022,1 hPa 0,0 l/m 0 min 0 min 0 W/m 25,7 km/h (4 Bft) 100,00 %
21.02.2020 03:52 3,1 C 2,2 C 1,7 C 93 % 1022,1 hPa 0,0 l/m 0 min 0 min 0 W/m 12,9 km/h (3 Bft) 100,00 %
21.02.2020 03:54 3,1 C 2,2 C 1,7 C 93 % 1022,2 hPa 0,0 l/m 0 min 0 min 0 W/m 19,3 km/h (3 Bft) 100,00 %
21.02.2020 03:56 3,1 C 2,2 C 1,7 C 93 % 1022,2 hPa 0,0 l/m 0 min 0 min 0 W/m 22,5 km/h (4 Bft) 97,87 %
21.02.2020 03:58 3,1 C 2,2 C 1,7 C 93 % 1022,1 hPa 0,0 l/m 0 min 0 min 0 W/m 25,7 km/h (4 Bft) 100,00 %
21.02.2020 04:00 3,1 C 2,2 C 1,7 C 93 % 1022,2 hPa 0,0 l/m 0 min 0 min 0 W/m 16,1 km/h (3 Bft) 100,00 %
21.02.2020 04:02 3,1 C 2,2 C 1,7 C 93 % 1022,3 hPa 0,0 l/m 0 min 0 min 0 W/m 12,9 km/h (3 Bft) 100,00 %
21.02.2020 04:04 3,1 C 2,2 C 1,7 C 93 % 1022,3 hPa 0,0 l/m 0 min 0 min 0 W/m 16,1 km/h (3 Bft) 100,00 %
21.02.2020 04:06 3,1 C 2,2 C 1,7 C 93 % 1022,3 hPa 0,0 l/m 0 min 0 min 0 W/m 19,3 km/h (3 Bft) 100,00 %
21.02.2020 04:08 3,1 C 2,2 C 1,7 C 93 % 1022,4 hPa 0,0 l/m 0 min 0 min 0 W/m 19,3 km/h (3 Bft) 100,00 %
21.02.2020 04:10 3,1 C 2,2 C 1,7 C 93 % 1022,4 hPa 0,0 l/m 0 min 0 min 0 W/m 12,9 km/h (3 Bft) 100,00 %
21.02.2020 04:12 3,1 C 2,2 C 1,7 C 93 % 1022,5 hPa 0,0 l/m 0 min 0 min 0 W/m 12,9 km/h (3 Bft) 100,00 %
21.02.2020 04:14 3,1 C 2,2 C 1,7 C 93 % 1022,5 hPa 0,0 l/m 0 min 0 min 0 W/m 19,3 km/h (3 Bft) 100,00 %
21.02.2020 04:16 3,1 C 2,2 C 1,7 C 93 % 1022,6 hPa 0,0 l/m 0 min 0 min 0 W/m 16,1 km/h (3 Bft) 100,00 %
21.02.2020 04:18 3,1 C 2,2 C 2,2 C 93 % 1022,7 hPa 0,0 l/m 0 min 0 min 0 W/m 19,3 km/h (3 Bft) 97,87 %
21.02.2020 04:20 3,1 C 2,8 C 2,2 C 93 % 1022,7 hPa 0,0 l/m 0 min 0 min 0 W/m 19,3 km/h (3 Bft) 100,00 %
21.02.2020 04:22 3,1 C 2,8 C 2,2 C 93 % 1022,8 hPa 0,0 l/m 0 min 0 min 0 W/m 19,3 km/h (3 Bft) 100,00 %
21.02.2020 04:24 3,1 C 2,2 C 2,2 C 93 % 1022,7 hPa 0,0 l/m 0 min 0 min 0 W/m 6,4 km/h (2 Bft) 97,87 %
21.02.2020 04:26 3,1 C 2,2 C 1,7 C 93 % 1022,8 hPa 0,0 l/m 0 min 0 min 0 W/m 16,1 km/h (3 Bft) 97,87 %
21.02.2020 04:28 3,1 C 2,2 C 1,7 C 93 % 1022,8 hPa 0,0 l/m 0 min 0 min 0 W/m 16,1 km/h (3 Bft) 97,87 %
21.02.2020 04:30 3,1 C 2,2 C 1,7 C 93 % 1022,7 hPa 0,0 l/m 0 min 0 min 0 W/m 25,7 km/h (4 Bft) 100,00 %
21.02.2020 04:32 3,1 C 2,2 C 1,7 C 93 % 1022,8 hPa 0,0 l/m 0 min 0 min 0 W/m 19,3 km/h (3 Bft) 100,00 %
21.02.2020 04:34 3,1 C 2,2 C 2,2 C 93 % 1022,8 hPa 0,0 l/m 0 min 0 min 0 W/m 22,5 km/h (4 Bft) 100,00 %
21.02.2020 04:36 3,1 C 2,2 C 2,2 C 94 % 1022,9 hPa 0,0 l/m 0 min 0 min 0 W/m 16,1 km/h (3 Bft) 95,74 %
21.02.2020 04:38 3,1 C 2,2 C 2,2 C 94 % 1022,9 hPa 0,0 l/m 0 min 0 min 0 W/m 19,3 km/h (3 Bft) 100,00 %
21.02.2020 04:40 3,1 C 2,8 C 2,2 C 94 % 1023,0 hPa 0,0 l/m 0 min 0 min 0 W/m 16,1 km/h (3 Bft) 97,87 %
21.02.2020 04:42 3,1 C 2,8 C 2,2 C 94 % 1023,0 hPa 0,0 l/m 0 min 0 min 0 W/m 16,1 km/h (3 Bft) 97,87 %
21.02.2020 04:44 3,1 C 2,8 C 2,2 C 94 % 1023,1 hPa 0,0 l/m 0 min 0 min 0 W/m 25,7 km/h (4 Bft) 97,83 %
21.02.2020 04:46 3,1 C 2,8 C 2,2 C 94 % 1023,2 hPa 0,0 l/m 0 min 0 min 0 W/m 22,5 km/h (4 Bft) 95,74 %
21.02.2020 04:48 3,1 C 2,8 C 2,2 C 93 % 1023,1 hPa 0,0 l/m 0 min 0 min 0 W/m 19,3 km/h (3 Bft) 97,87 %
21.02.2020 04:50 3,2 C 2,8 C 2,2 C 93 % 1023,2 hPa 0,0 l/m 0 min 0 min 0 W/m 16,1 km/h (3 Bft) 97,87 %
21.02.2020 04:52 3,2 C 2,8 C 2,2 C 93 % 1023,2 hPa 0,0 l/m 0 min 0 min 0 W/m 16,1 km/h (3 Bft) 97,87 %
21.02.2020 04:54 3,2 C 2,8 C 2,2 C 93 % 1023,3 hPa 0,0 l/m 0 min 0 min 0 W/m 22,5 km/h (4 Bft) 95,74 %
21.02.2020 04:56 3,2 C 2,8 C 2,2 C 93 % 1023,3 hPa 0,0 l/m 0 min 0 min 0 W/m 12,9 km/h (3 Bft) 97,83 %
21.02.2020 04:58 3,2 C 2,8 C 2,2 C 93 % 1023,4 hPa 0,0 l/m 0 min 0 min 0 W/m 19,3 km/h (3 Bft) 95,74 %
21.02.2020 05:00 3,2 C 2,8 C 2,2 C 93 % 1023,4 hPa 0,0 l/m 0 min 0 min 0 W/m 19,3 km/h (3 Bft) 95,74 %
21.02.2020 05:02 3,2 C 2,8 C 2,2 C 93 % 1023,5 hPa 0,0 l/m 0 min 0 min 0 W/m 16,1 km/h (3 Bft) 97,87 %
21.02.2020 05:04 3,2 C 2,8 C 2,2 C 93 % 1023,6 hPa 0,0 l/m 0 min 0 min 0 W/m 25,7 km/h (4 Bft) 97,87 %
21.02.2020 05:06 3,2 C 2,8 C 2,2 C 93 % 1023,5 hPa 0,0 l/m 0 min 0 min 0 W/m 16,1 km/h (3 Bft) 97,87 %
21.02.2020 05:08 3,2 C 2,8 C 2,2 C 93 % 1023,6 hPa 0,0 l/m 0 min 0 min 0 W/m 12,9 km/h (3 Bft) 97,83 %
21.02.2020 05:10 3,2 C 2,8 C 2,2 C 93 % 1023,6 hPa 0,0 l/m 0 min 0 min 0 W/m 29,0 km/h (5 Bft) 97,87 %
21.02.2020 05:12 3,2 C 2,8 C 2,2 C 93 % 1023,6 hPa 0,0 l/m 0 min 0 min 0 W/m 19,3 km/h (3 Bft) 95,74 %
21.02.2020 05:14 3,2 C 2,8 C 2,2 C 93 % 1023,6 hPa 0,0 l/m 0 min 0 min 0 W/m 19,3 km/h (3 Bft) 95,74 %
21.02.2020 05:16 3,2 C 2,2 C 1,7 C 93 % 1023,6 hPa 0,0 l/m 0 min 0 min 0 W/m 16,1 km/h (3 Bft) 93,62 %
21.02.2020 05:18 3,2 C 2,8 C 2,2 C 93 % 1023,7 hPa 0,0 l/m 0 min 0 min 0 W/m 29,0 km/h (5 Bft) 95,65 %
21.02.2020 05:20 3,2 C 2,8 C 2,2 C 93 % 1023,7 hPa 0,0 l/m 0 min 0 min 0 W/m 16,1 km/h (3 Bft) 95,74 %
21.02.2020 05:22 3,2 C 2,8 C 2,2 C 93 % 1023,7 hPa 0,0 l/m 0 min 0 min 0 W/m 12,9 km/h (3 Bft) 97,87 %
21.02.2020 05:24 3,2 C 2,8 C 2,2 C 93 % 1023,7 hPa 0,0 l/m 0 min 0 min 0 W/m 16,1 km/h (3 Bft) 97,87 %
21.02.2020 05:26 3,2 C 2,8 C 2,2 C 93 % 1023,7 hPa 0,0 l/m 0 min 0 min 0 W/m 32,2 km/h (5 Bft) 95,74 %
21.02.2020 05:28 3,2 C 2,8 C 2,2 C 93 % 1023,7 hPa 0,0 l/m 0 min 0 min 0 W/m 16,1 km/h (3 Bft) 97,87 %
21.02.2020 05:30 3,2 C 2,8 C 2,2 C 93 % 1023,8 hPa 0,0 l/m 0 min 0 min 0 W/m 16,1 km/h (3 Bft) 95,65 %
21.02.2020 05:32 3,2 C 2,8 C 2,2 C 93 % 1023,8 hPa 0,0 l/m 0 min 0 min 0 W/m 12,9 km/h (3 Bft) 97,87 %
21.02.2020 05:34 3,1 C 2,8 C 2,2 C 92 % 1023,8 hPa 0,0 l/m 0 min 0 min 0 W/m 16,1 km/h (3 Bft) 97,87 %
21.02.2020 05:36 3,2 C 2,8 C 2,2 C 92 % 1023,9 hPa 0,0 l/m 0 min 0 min 0 W/m 16,1 km/h (3 Bft) 93,62 %
21.02.2020 05:38 3,2 C 2,2 C 2,2 C 92 % 1023,9 hPa 0,0 l/m 0 min 0 min 0 W/m 16,1 km/h (3 Bft) 95,74 %
21.02.2020 05:40 3,1 C 2,2 C 2,2 C 92 % 1024,0 hPa 0,0 l/m 0 min 0 min 0 W/m 16,1 km/h (3 Bft) 95,74 %
21.02.2020 05:42 3,1 C 2,8 C 2,2 C 92 % 1024,0 hPa 0,0 l/m 0 min 0 min 0 W/m 22,5 km/h (4 Bft) 93,48 %
21.02.2020 05:44 3,2 C 2,8 C 2,2 C 92 % 1024,0 hPa 0,0 l/m 0 min 0 min 0 W/m 19,3 km/h (3 Bft) 93,62 %
21.02.2020 05:46 3,2 C 2,8 C 2,2 C 92 % 1024,0 hPa 0,0 l/m 0 min 0 min 0 W/m 12,9 km/h (3 Bft) 93,62 %
21.02.2020 05:48 3,2 C 2,8 C 2,2 C 92 % 1024,0 hPa 0,0 l/m 0 min 0 min 0 W/m 22,5 km/h (4 Bft) 95,74 %
21.02.2020 05:50 3,2 C 2,8 C 2,2 C 92 % 1024,2 hPa 0,0 l/m 0 min 0 min 0 W/m 16,1 km/h (3 Bft) 95,74 %
21.02.2020 05:52 3,2 C 2,8 C 2,2 C 92 % 1024,1 hPa 0,0 l/m 0 min 0 min 0 W/m 19,3 km/h (3 Bft) 93,62 %
21.02.2020 05:54 3,2 C 2,8 C 2,2 C 92 % 1024,1 hPa 0,0 l/m 0 min 0 min 0 W/m 12,9 km/h (3 Bft) 95,65 %
21.02.2020 05:56 3,2 C 2,8 C 2,2 C 92 % 1024,1 hPa 0,0 l/m 0 min 0 min 0 W/m 16,1 km/h (3 Bft) 93,62 %
21.02.2020 05:58 3,1 C 2,2 C 1,7 C 92 % 1024,2 hPa 0,0 l/m 0 min 0 min 0 W/m 12,9 km/h (3 Bft) 95,74 %
21.02.2020 06:00 3,1 C 2,2 C 1,7 C 92 % 1024,2 hPa 0,0 l/m 0 min 0 min 0 W/m 16,1 km/h (3 Bft) 95,74 %
21.02.2020 06:02 3,1 C 2,2 C 1,7 C 92 % 1024,3 hPa 0,0 l/m 0 min 0 min 0 W/m 16,1 km/h (3 Bft) 95,74 %
21.02.2020 06:04 3,1 C 2,2 C 1,7 C 92 % 1024,3 hPa 0,0 l/m 0 min 0 min 0 W/m 9,7 km/h (2 Bft) 95,65 %
21.02.2020 06:08 3,1 C 2,2 C 1,7 C 92 % 1024,3 hPa 0,0 l/m 0 min 0 min 0 W/m 22,5 km/h (4 Bft) 95,74 %
21.02.2020 06:10 3,1 C 2,2 C 1,7 C 92 % 1024,3 hPa 0,0 l/m 0 min 0 min 0 W/m 6,4 km/h (2 Bft) 93,62 %
21.02.2020 06:12 3,1 C 2,2 C 1,7 C 92 % 1024,4 hPa 0,0 l/m 0 min 0 min 0 W/m 12,9 km/h (3 Bft) 95,74 %
21.02.2020 06:14 3,1 C 2,2 C 1,7 C 92 % 1024,4 hPa 0,0 l/m 0 min 0 min 0 W/m 6,4 km/h (2 Bft) 95,74 %
21.02.2020 06:16 3,1 C 2,2 C 1,7 C 92 % 1024,4 hPa 0,0 l/m 0 min 0 min 0 W/m 16,1 km/h (3 Bft) 95,65 %
21.02.2020 06:18 3,1 C 2,2 C 1,7 C 92 % 1024,3 hPa 0,0 l/m 0 min 0 min 0 W/m 16,1 km/h (3 Bft) 97,87 %
21.02.2020 06:20 3,1 C 2,2 C 1,7 C 92 % 1024,3 hPa 0,0 l/m 0 min 0 min 0 W/m 12,9 km/h (3 Bft) 97,87 %
21.02.2020 06:22 3,1 C 2,2 C 1,7 C 91 % 1024,4 hPa 0,0 l/m 0 min 0 min 0 W/m 12,9 km/h (3 Bft) 97,87 %
21.02.2020 06:24 3,1 C 2,2 C 1,7 C 91 % 1024,5 hPa 0,0 l/m 0 min 0 min 0 W/m 16,1 km/h (3 Bft) 97,87 %
21.02.2020 06:26 3,1 C 2,2 C 1,7 C 91 % 1024,5 hPa 0,0 l/m 0 min 0 min 0 W/m 9,7 km/h (2 Bft) 100,00 %
21.02.2020 06:28 3,0 C 2,2 C 1,7 C 91 % 1024,5 hPa 0,0 l/m 0 min 0 min 0 W/m 16,1 km/h (3 Bft) 100,00 %
21.02.2020 06:30 3,0 C 2,2 C 1,7 C 91 % 1024,4 hPa 0,0 l/m 0 min 0 min 0 W/m 12,9 km/h (3 Bft) 97,87 %
21.02.2020 06:32 3,0 C 2,2 C 1,7 C 92 % 1024,5 hPa 0,0 l/m 0 min 0 min 0 W/m 16,1 km/h (3 Bft) 100,00 %
21.02.2020 06:34 3,0 C 2,2 C 1,7 C 92 % 1024,5 hPa 0,0 l/m 0 min 0 min 0 W/m 12,9 km/h (3 Bft) 100,00 %
21.02.2020 06:36 2,9 C 2,2 C 1,7 C 92 % 1024,6 hPa 0,0 l/m 0 min 0 min 0 W/m 12,9 km/h (3 Bft) 100,00 %
21.02.2020 06:38 2,9 C 2,2 C 1,7 C 92 % 1024,5 hPa 0,0 l/m 0 min 0 min 0 W/m 19,3 km/h (3 Bft) 100,00 %
21.02.2020 06:40 2,9 C 2,2 C 1,7 C 92 % 1024,6 hPa 0,0 l/m 0 min 0 min 0 W/m 19,3 km/h (3 Bft) 97,83 %
21.02.2020 06:42 2,9 C 2,2 C 1,7 C 92 % 1024,6 hPa 0,0 l/m 0 min 0 min 0 W/m 9,7 km/h (2 Bft) 100,00 %
21.02.2020 06:44 2,9 C 2,2 C 1,7 C 92 % 1024,7 hPa 0,0 l/m 0 min 0 min 0 W/m 12,9 km/h (3 Bft) 100,00 %
21.02.2020 06:46 2,9 C 2,2 C 1,7 C 92 % 1024,7 hPa 0,0 l/m 0 min 0 min 0 W/m 12,9 km/h (3 Bft) 100,00 %
21.02.2020 06:48 2,9 C 2,2 C 1,7 C 92 % 1024,7 hPa 0,0 l/m 0 min 0 min 0 W/m 12,9 km/h (3 Bft) 100,00 %
21.02.2020 06:50 2,9 C 2,2 C 1,7 C 92 % 1024,8 hPa 0,0 l/m 0 min 0 min 0 W/m 16,1 km/h (3 Bft) 100,00 %
21.02.2020 06:52 2,9 C 2,2 C 1,7 C 92 % 1024,8 hPa 0,0 l/m 0 min 0 min 0 W/m 16,1 km/h (3 Bft) 97,83 %
21.02.2020 06:54 2,9 C 2,2 C 1,7 C 92 % 1024,8 hPa 0,0 l/m 0 min 0 min 0 W/m 16,1 km/h (3 Bft) 97,87 %
21.02.2020 06:56 2,9 C 2,2 C 1,7 C 92 % 1024,7 hPa 0,0 l/m 0 min 0 min 0 W/m 16,1 km/h (3 Bft) 100,00 %
21.02.2020 06:58 2,8 C 2,2 C 1,7 C 91 % 1024,8 hPa 0,0 l/m 0 min 0 min 0 W/m 6,4 km/h (2 Bft) 100,00 %
21.02.2020 07:00 2,8 C 2,2 C 1,7 C 91 % 1024,8 hPa 0,0 l/m 0 min 0 min 0 W/m 6,4 km/h (2 Bft) 100,00 %
21.02.2020 07:02 2,8 C 2,2 C 1,7 C 91 % 1024,8 hPa 0,0 l/m 0 min 0 min 0 W/m 16,1 km/h (3 Bft) 97,87 %
21.02.2020 07:04 2,8 C 2,2 C 1,7 C 91 % 1024,7 hPa 0,0 l/m 0 min 0 min 0 W/m 12,9 km/h (3 Bft) 97,83 %
21.02.2020 07:06 2,8 C 2,2 C 1,7 C 91 % 1024,7 hPa 0,0 l/m 0 min 0 min 0 W/m 19,3 km/h (3 Bft) 95,74 %
21.02.2020 07:08 2,8 C 2,2 C 1,7 C 92 % 1024,8 hPa 0,0 l/m 0 min 0 min 0 W/m 12,9 km/h (3 Bft) 97,87 %
21.02.2020 07:10 2,8 C 2,2 C 1,7 C 92 % 1024,8 hPa 0,0 l/m 0 min 0 min 0 W/m 16,1 km/h (3 Bft) 95,74 %
21.02.2020 07:12 2,8 C 2,2 C 1,7 C 92 % 1024,8 hPa 0,0 l/m 0 min 0 min 0 W/m 25,7 km/h (4 Bft) 95,74 %
21.02.2020 07:14 2,7 C 2,2 C 1,7 C 92 % 1024,8 hPa 0,0 l/m 0 min 0 min 0 W/m 12,9 km/h (3 Bft) 93,48 %
21.02.2020 07:16 2,7 C 2,2 C 1,7 C 92 % 1024,9 hPa 0,0 l/m 0 min 0 min 0 W/m 16,1 km/h (3 Bft) 93,62 %
21.02.2020 07:18 2,7 C 2,2 C 1,7 C 92 % 1024,9 hPa 0,0 l/m 0 min 0 min 0 W/m 12,9 km/h (3 Bft) 97,87 %
21.02.2020 07:20 2,7 C 2,2 C 1,7 C 92 % 1024,9 hPa 0,0 l/m 0 min 0 min 0 W/m 16,1 km/h (3 Bft) 97,87 %
21.02.2020 07:22 2,7 C 2,2 C 1,7 C 92 % 1024,9 hPa 0,0 l/m 0 min 0 min 0 W/m 9,7 km/h (2 Bft) 78,72 %
21.02.2020 07:24 2,7 C 2,2 C 1,7 C 92 % 1025,1 hPa 0,0 l/m 0 min 0 min 0 W/m 22,5 km/h (4 Bft) 70,00 %
21.02.2020 07:26 2,7 C 2,2 C 1,7 C 92 % 1025,0 hPa 0,0 l/m 0 min 0 min 0 W/m 12,9 km/h (3 Bft) 93,48 %
21.02.2020 07:28 2,7 C 2,2 C 1,7 C 92 % 1025,0 hPa 0,0 l/m 0 min 0 min 0 W/m 35,4 km/h (5 Bft) 97,87 %
21.02.2020 07:30 2,7 C 2,2 C 1,7 C 92 % 1025,0 hPa 0,0 l/m 0 min 0 min 0 W/m 22,5 km/h (4 Bft) 97,87 %
21.02.2020 07:32 2,7 C 2,2 C 1,7 C 92 % 1025,1 hPa 0,0 l/m 0 min 0 min 0 W/m 16,1 km/h (3 Bft) 97,87 %
21.02.2020 07:34 2,7 C 2,2 C 1,7 C 92 % 1025,0 hPa 0,0 l/m 0 min 0 min 0 W/m 12,9 km/h (3 Bft) 97,87 %
21.02.2020 07:36 2,7 C 2,2 C 1,7 C 92 % 1025,1 hPa 0,0 l/m 0 min 0 min 0 W/m 22,5 km/h (4 Bft) 97,87 %
21.02.2020 07:38 2,7 C 2,2 C 1,7 C 92 % 1025,1 hPa 0,0 l/m 0 min 0 min 3 W/m 12,9 km/h (3 Bft) 95,65 %
21.02.2020 07:40 2,7 C 2,2 C 1,7 C 92 % 1025,2 hPa 0,0 l/m 0 min 0 min 5 W/m 19,3 km/h (3 Bft) 97,87 %
21.02.2020 07:42 2,7 C 2,2 C 1,7 C 92 % 1025,1 hPa 0,0 l/m 0 min 0 min 5 W/m 16,1 km/h (3 Bft) 97,87 %
21.02.2020 07:44 2,7 C 2,2 C 1,7 C 92 % 1025,3 hPa 0,0 l/m 0 min 0 min 7 W/m 16,1 km/h (3 Bft) 100,00 %
21.02.2020 07:46 2,7 C 2,2 C 1,7 C 92 % 1025,3 hPa 0,0 l/m 0 min 0 min 7 W/m 12,9 km/h (3 Bft) 100,00 %
21.02.2020 07:48 2,7 C 2,2 C 1,7 C 92 % 1025,4 hPa 0,0 l/m 0 min 0 min 9 W/m 19,3 km/h (3 Bft) 97,87 %
21.02.2020 07:50 2,7 C 2,2 C 1,7 C 92 % 1025,3 hPa 0,0 l/m 0 min 0 min 9 W/m 16,1 km/h (3 Bft) 100,00 %
21.02.2020 07:52 2,7 C 2,2 C 1,7 C 92 % 1025,3 hPa 0,0 l/m 0 min 0 min 11 W/m 12,9 km/h (3 Bft) 100,00 %
21.02.2020 07:54 2,7 C 2,2 C 1,7 C 92 % 1025,3 hPa 0,0 l/m 0 min 0 min 11 W/m 9,7 km/h (2 Bft) 100,00 %
21.02.2020 07:56 2,7 C 2,2 C 1,7 C 92 % 1025,4 hPa 0,0 l/m 0 min 0 min 12 W/m 12,9 km/h (3 Bft) 100,00 %
21.02.2020 07:58 2,7 C 2,2 C 1,7 C 92 % 1025,4 hPa 0,0 l/m 0 min 0 min 13 W/m 16,1 km/h (3 Bft) 97,87 %
21.02.2020 08:00 2,7 C 2,2 C 1,7 C 92 % 1025,4 hPa 0,0 l/m 0 min 0 min 14 W/m 19,3 km/h (3 Bft) 100,00 %
21.02.2020 08:02 2,7 C 2,2 C 1,7 C 92 % 1025,4 hPa 0,0 l/m 0 min 0 min 16 W/m 25,7 km/h (4 Bft) 100,00 %
21.02.2020 08:04 2,7 C 2,2 C 1,7 C 92 % 1025,4 hPa 0,0 l/m 0 min 0 min 17 W/m 19,3 km/h (3 Bft) 100,00 %
21.02.2020 08:06 2,8 C 2,2 C 1,7 C 92 % 1025,4 hPa 0,0 l/m 0 min 0 min 18 W/m 19,3 km/h (3 Bft) 100,00 %
21.02.2020 08:08 2,8 C 2,2 C 1,7 C 92 % 1025,4 hPa 0,0 l/m 0 min 0 min 20 W/m 12,9 km/h (3 Bft) 100,00 %
21.02.2020 08:10 2,8 C 2,8 C 1,7 C 92 % 1025,4 hPa 0,0 l/m 0 min 0 min 22 W/m 16,1 km/h (3 Bft) 100,00 %
21.02.2020 08:12 2,8 C 2,8 C 1,7 C 92 % 1025,4 hPa 0,0 l/m 0 min 0 min 25 W/m 16,1 km/h (3 Bft) 100,00 %
21.02.2020 08:14 2,8 C 2,8 C 1,7 C 92 % 1025,4 hPa 0,0 l/m 0 min 0 min 26 W/m 16,1 km/h (3 Bft) 100,00 %
21.02.2020 08:16 2,8 C 2,8 C 1,7 C 92 % 1025,5 hPa 0,0 l/m 0 min 0 min 25 W/m 6,4 km/h (2 Bft) 97,87 %
21.02.2020 08:18 2,8 C 2,8 C 1,7 C 92 % 1025,6 hPa 0,0 l/m 0 min 0 min 25 W/m 16,1 km/h (3 Bft) 100,00 %
21.02.2020 08:20 2,9 C 2,8 C 1,7 C 92 % 1025,6 hPa 0,0 l/m 0 min 0 min 26 W/m 12,9 km/h (3 Bft) 97,87 %
21.02.2020 08:22 2,9 C 2,8 C 2,2 C 92 % 1025,5 hPa 0,0 l/m 0 min 0 min 27 W/m 16,1 km/h (3 Bft) 97,87 %
21.02.2020 08:24 2,9 C 2,8 C 2,2 C 92 % 1025,6 hPa 0,0 l/m 0 min 0 min 28 W/m 12,9 km/h (3 Bft) 97,83 %
21.02.2020 08:26 2,9 C 2,8 C 2,2 C 92 % 1025,6 hPa 0,0 l/m 0 min 0 min 26 W/m 12,9 km/h (3 Bft) 97,87 %
21.02.2020 08:28 2,9 C 2,8 C 2,2 C 92 % 1025,7 hPa 0,0 l/m 0 min 0 min 32 W/m 16,1 km/h (3 Bft) 95,74 %
21.02.2020 08:30 3,0 C 2,8 C 2,2 C 92 % 1025,7 hPa 0,0 l/m 0 min 0 min 35 W/m 22,5 km/h (4 Bft) 97,87 %
21.02.2020 08:32 3,0 C 2,8 C 2,2 C 92 % 1025,8 hPa 0,0 l/m 0 min 0 min 36 W/m 12,9 km/h (3 Bft) 97,87 %
21.02.2020 08:34 3,1 C 2,8 C 2,2 C 92 % 1025,8 hPa 0,0 l/m 0 min 0 min 35 W/m 6,4 km/h (2 Bft) 97,87 %
21.02.2020 08:36 3,1 C 2,8 C 2,2 C 92 % 1025,9 hPa 0,0 l/m 0 min 0 min 33 W/m 16,1 km/h (3 Bft) 97,83 %
21.02.2020 08:38 3,1 C 2,8 C 2,2 C 92 % 1025,8 hPa 0,0 l/m 0 min 0 min 35 W/m 12,9 km/h (3 Bft) 97,87 %
21.02.2020 08:40 3,1 C 2,8 C 2,2 C 92 % 1025,9 hPa 0,0 l/m 0 min 0 min 34 W/m 16,1 km/h (3 Bft) 97,87 %
21.02.2020 08:42 3,2 C 3,3 C 2,2 C 92 % 1025,9 hPa 0,0 l/m 0 min 0 min 33 W/m 22,5 km/h (4 Bft) 97,87 %
21.02.2020 08:44 3,2 C 3,3 C 2,2 C 92 % 1025,8 hPa 0,0 l/m 0 min 0 min 33 W/m 19,3 km/h (3 Bft) 97,87 %
21.02.2020 08:46 3,2 C 3,3 C 2,2 C 92 % 1025,8 hPa 0,0 l/m 0 min 0 min 33 W/m 32,2 km/h (5 Bft) 95,74 %
21.02.2020 08:48 3,3 C 3,3 C 2,2 C 92 % 1025,9 hPa 0,0 l/m 0 min 0 min 33 W/m 16,1 km/h (3 Bft) 97,83 %
21.02.2020 08:50 3,3 C 3,3 C 2,8 C 92 % 1025,9 hPa 0,0 l/m 0 min 0 min 36 W/m 12,9 km/h (3 Bft) 97,87 %
21.02.2020 08:52 3,3 C 3,3 C 2,8 C 91 % 1025,9 hPa 0,0 l/m 0 min 0 min 37 W/m 19,3 km/h (3 Bft) 97,87 %
21.02.2020 08:54 3,3 C 3,3 C 2,8 C 91 % 1025,9 hPa 0,0 l/m 0 min 0 min 37 W/m 16,1 km/h (3 Bft) 97,87 %
21.02.2020 08:56 3,4 C 3,3 C 2,8 C 91 % 1025,9 hPa 0,0 l/m 0 min 0 min 39 W/m 16,1 km/h (3 Bft) 95,74 %
21.02.2020 08:58 3,4 C 3,3 C 2,8 C 91 % 1025,9 hPa 0,0 l/m 0 min 0 min 41 W/m 19,3 km/h (3 Bft) 95,74 %
21.02.2020 09:00 3,4 C 3,3 C 2,8 C 91 % 1026,0 hPa 0,0 l/m 0 min 0 min 42 W/m 12,9 km/h (3 Bft) 95,65 %
21.02.2020 09:02 3,5 C 3,3 C 2,8 C 91 % 1026,0 hPa 0,0 l/m 0 min 0 min 42 W/m 12,9 km/h (3 Bft) 95,74 %
21.02.2020 09:04 3,6 C 3,3 C 2,8 C 91 % 1026,0 hPa 0,0 l/m 0 min 0 min 43 W/m 32,2 km/h (5 Bft) 95,83 %
21.02.2020 09:06 3,6 C 3,9 C 2,8 C 91 % 1026,0 hPa 0,0 l/m 0 min 0 min 44 W/m 16,1 km/h (3 Bft) 97,87 %
21.02.2020 09:08 3,6 C 3,9 C 2,8 C 91 % 1026,0 hPa 0,0 l/m 0 min 0 min 45 W/m 16,1 km/h (3 Bft) 95,74 %
21.02.2020 09:10 3,7 C 3,9 C 2,8 C 91 % 1025,9 hPa 0,0 l/m 0 min 0 min 46 W/m 12,9 km/h (3 Bft) 95,65 %
21.02.2020 09:12 3,7 C 3,9 C 2,8 C 91 % 1025,9 hPa 0,0 l/m 0 min 0 min 48 W/m 12,9 km/h (3 Bft) 95,74 %
21.02.2020 09:14 3,7 C 3,9 C 2,8 C 91 % 1025,9 hPa 0,0 l/m 0 min 0 min 49 W/m 12,9 km/h (3 Bft) 57,45 %
21.02.2020 09:16 3,8 C 3,9 C 2,8 C 91 % 1026,0 hPa 0,0 l/m 0 min 0 min 50 W/m 12,9 km/h (3 Bft) 92,31 %
21.02.2020 09:18 3,8 C 3,9 C 2,8 C 91 % 1026,0 hPa 0,0 l/m 0 min 0 min 53 W/m 25,7 km/h (4 Bft) 97,87 %
21.02.2020 09:20 3,8 C 3,9 C 3,3 C 91 % 1026,0 hPa 0,0 l/m 0 min 0 min 53 W/m 12,9 km/h (3 Bft) 97,87 %
21.02.2020 09:22 3,9 C 4,4 C 3,3 C 91 % 1026,1 hPa 0,0 l/m 0 min 0 min 55 W/m 19,3 km/h (3 Bft) 95,65 %
21.02.2020 09:24 3,9 C 5,0 C 3,3 C 91 % 1026,1 hPa 0,0 l/m 0 min 0 min 111 W/m 16,1 km/h (3 Bft) 93,62 %
21.02.2020 09:26 4,0 C 6,1 C 3,3 C 91 % 1026,0 hPa 0,0 l/m 2 min 0 min 201 W/m 12,9 km/h (3 Bft) 97,87 %
21.02.2020 09:28 4,1 C 6,7 C 3,3 C 91 % 1026,3 hPa 0,0 l/m 2 min 0 min 210 W/m 25,7 km/h (4 Bft) 97,87 %
21.02.2020 09:30 4,1 C 7,2 C 3,3 C 91 % 1026,1 hPa 0,0 l/m 2 min 0 min 217 W/m 19,3 km/h (3 Bft) 95,74 %
21.02.2020 09:32 4,2 C 8,3 C 3,3 C 90 % 1026,1 hPa 0,0 l/m 2 min 0 min 224 W/m 12,9 km/h (3 Bft) 95,74 %
21.02.2020 09:34 4,3 C 8,3 C 3,3 C 90 % 1026,2 hPa 0,0 l/m 2 min 0 min 230 W/m 16,1 km/h (3 Bft) 95,65 %
21.02.2020 09:36 4,3 C 8,3 C 3,3 C 90 % 1026,2 hPa 0,0 l/m 2 min 0 min 233 W/m 16,1 km/h (3 Bft) 97,87 %
21.02.2020 09:38 4,4 C 8,9 C 3,9 C 90 % 1026,3 hPa 0,0 l/m 2 min 0 min 241 W/m 12,9 km/h (3 Bft) 95,74 %
21.02.2020 09:40 4,6 C 8,3 C 4,4 C 90 % 1026,4 hPa 0,0 l/m 2 min 0 min 248 W/m 22,5 km/h (4 Bft) 97,87 %
21.02.2020 09:42 4,7 C 7,8 C 4,4 C 90 % 1026,3 hPa 0,0 l/m 2 min 0 min 240 W/m 19,3 km/h (3 Bft) 93,62 %
21.02.2020 09:44 4,7 C 7,8 C 4,4 C 90 % 1026,3 hPa 0,0 l/m 2 min 0 min 236 W/m 19,3 km/h (3 Bft) 95,74 %
21.02.2020 09:46 4,8 C 8,3 C 5,0 C 89 % 1026,3 hPa 0,0 l/m 2 min 0 min 252 W/m 16,1 km/h (3 Bft) 97,83 %
21.02.2020 09:48 4,9 C 8,9 C 5,0 C 89 % 1026,3 hPa 0,0 l/m 2 min 0 min 270 W/m 12,9 km/h (3 Bft) 97,87 %
21.02.2020 09:50 5,0 C 8,9 C 5,0 C 89 % 1026,4 hPa 0,0 l/m 2 min 0 min 266 W/m 16,1 km/h (3 Bft) 97,87 %
21.02.2020 09:52 5,1 C 8,3 C 5,0 C 89 % 1026,4 hPa 0,0 l/m 2 min 0 min 269 W/m 25,7 km/h (4 Bft) 97,87 %
21.02.2020 09:54 5,1 C 8,3 C 5,0 C 88 % 1026,3 hPa 0,0 l/m 2 min 0 min 255 W/m 22,5 km/h (4 Bft) 95,74 %
21.02.2020 09:56 5,2 C 9,4 C 5,0 C 88 % 1026,4 hPa 0,0 l/m 2 min 0 min 291 W/m 16,1 km/h (3 Bft) 95,65 %
21.02.2020 09:58 5,3 C 9,4 C 5,0 C 88 % 1026,4 hPa 0,0 l/m 2 min 0 min 290 W/m 22,5 km/h (4 Bft) 95,74 %
21.02.2020 10:00 5,3 C 9,4 C 4,4 C 88 % 1026,4 hPa 0,0 l/m 2 min 0 min 302 W/m 12,9 km/h (3 Bft) 95,74 %
21.02.2020 10:02 5,4 C 9,4 C 4,4 C 87 % 1026,4 hPa 0,0 l/m 2 min 0 min 304 W/m 19,3 km/h (3 Bft) 93,62 %
21.02.2020 10:04 5,6 C 8,9 C 4,4 C 87 % 1026,3 hPa 0,0 l/m 2 min 0 min 280 W/m 25,7 km/h (4 Bft) 97,87 %
21.02.2020 10:06 5,6 C 9,4 C 5,0 C 87 % 1026,4 hPa 0,0 l/m 2 min 0 min 331 W/m 16,1 km/h (3 Bft) 95,74 %
21.02.2020 10:08 5,7 C 10,0 C 5,0 C 86 % 1026,4 hPa 0,0 l/m 2 min 0 min 344 W/m 25,7 km/h (4 Bft) 97,83 %
21.02.2020 10:10 5,8 C 10,0 C 5,0 C 86 % 1026,4 hPa 0,0 l/m 2 min 0 min 357 W/m 19,3 km/h (3 Bft) 95,74 %
21.02.2020 10:12 5,8 C 9,4 C 5,0 C 86 % 1026,4 hPa 0,0 l/m 2 min 0 min 303 W/m 19,3 km/h (3 Bft) 97,87 %
21.02.2020 10:14 5,9 C 8,9 C 5,0 C 86 % 1026,4 hPa 0,0 l/m 2 min 0 min 272 W/m 19,3 km/h (3 Bft) 97,87 %
21.02.2020 10:16 5,9 C 8,9 C 5,0 C 86 % 1026,6 hPa 0,0 l/m 2 min 0 min 245 W/m 22,5 km/h (4 Bft) 97,87 %
21.02.2020 10:18 6,0 C 9,4 C 5,0 C 86 % 1026,6 hPa 0,0 l/m 2 min 0 min 317 W/m 16,1 km/h (3 Bft) 97,87 %
21.02.2020 10:20 6,1 C 9,4 C 5,0 C 86 % 1026,7 hPa 0,0 l/m 2 min 0 min 324 W/m 22,5 km/h (4 Bft) 97,83 %
21.02.2020 10:22 6,1 C 9,4 C 5,0 C 85 % 1026,7 hPa 0,0 l/m 2 min 0 min 359 W/m 25,7 km/h (4 Bft) 97,87 %
21.02.2020 10:24 6,2 C 10,0 C 5,6 C 85 % 1026,6 hPa 0,0 l/m 2 min 0 min 373 W/m 22,5 km/h (4 Bft) 97,87 %
21.02.2020 10:26 6,2 C 10,0 C 5,6 C 85 % 1026,7 hPa 0,0 l/m 2 min 0 min 384 W/m 19,3 km/h (3 Bft) 97,87 %
21.02.2020 10:28 6,3 C 10,0 C 5,6 C 85 % 1026,6 hPa 0,0 l/m 2 min 0 min 403 W/m 19,3 km/h (3 Bft) 97,87 %
21.02.2020 10:30 6,3 C 9,4 C 5,6 C 85 % 1026,6 hPa 0,0 l/m 2 min 0 min 403 W/m 12,9 km/h (3 Bft) 97,87 %
21.02.2020 10:32 6,4 C 10,0 C 5,6 C 85 % 1026,6 hPa 0,0 l/m 2 min 0 min 402 W/m 35,4 km/h (5 Bft) 95,65 %
21.02.2020 10:34 6,5 C 10,0 C 5,6 C 85 % 1026,7 hPa 0,0 l/m 2 min 0 min 328 W/m 12,9 km/h (3 Bft) 95,74 %
21.02.2020 10:36 6,5 C 9,4 C 5,6 C 85 % 1026,9 hPa 0,0 l/m 2 min 0 min 286 W/m 16,1 km/h (3 Bft) 95,74 %
21.02.2020 10:38 6,5 C 8,3 C 5,6 C 84 % 1026,8 hPa 0,0 l/m 2 min 0 min 229 W/m 12,9 km/h (3 Bft) 95,74 %
21.02.2020 10:40 6,5 C 8,3 C 5,6 C 84 % 1026,7 hPa 0,0 l/m 2 min 0 min 266 W/m 16,1 km/h (3 Bft) 95,74 %
21.02.2020 10:42 6,5 C 8,9 C 5,6 C 84 % 1026,8 hPa 0,0 l/m 2 min 0 min 274 W/m 16,1 km/h (3 Bft) 95,74 %
21.02.2020 10:44 6,5 C 8,3 C 5,6 C 84 % 1026,8 hPa 0,0 l/m 2 min 0 min 244 W/m 19,3 km/h (3 Bft) 95,65 %
21.02.2020 10:46 6,5 C 9,4 C 5,6 C 84 % 1026,8 hPa 0,0 l/m 2 min 0 min 340 W/m 29,0 km/h (5 Bft) 95,74 %
21.02.2020 10:48 6,5 C 10,6 C 5,6 C 84 % 1026,9 hPa 0,0 l/m 2 min 0 min 387 W/m 16,1 km/h (3 Bft) 93,62 %
21.02.2020 10:50 6,6 C 10,6 C 5,6 C 84 % 1026,9 hPa 0,0 l/m 2 min 0 min 353 W/m 16,1 km/h (3 Bft) 95,74 %
21.02.2020 10:52 6,6 C 10,6 C 5,6 C 84 % 1027,0 hPa 0,0 l/m 2 min 0 min 390 W/m 16,1 km/h (3 Bft) 95,74 %
21.02.2020 10:54 6,7 C 10,6 C 5,6 C 84 % 1026,9 hPa 0,0 l/m 2 min 0 min 420 W/m 19,3 km/h (3 Bft) 95,74 %
21.02.2020 10:56 6,7 C 11,1 C 6,1 C 83 % 1026,9 hPa 0,0 l/m 2 min 0 min 406 W/m 16,1 km/h (3 Bft) 95,65 %
21.02.2020 10:58 6,8 C 11,1 C 6,1 C 83 % 1026,9 hPa 0,0 l/m 2 min 0 min 422 W/m 19,3 km/h (3 Bft) 95,74 %
21.02.2020 11:00 6,9 C 11,7 C 6,1 C 83 % 1026,9 hPa 0,0 l/m 2 min 0 min 425 W/m 16,1 km/h (3 Bft) 95,74 %
21.02.2020 11:02 6,9 C 11,1 C 6,1 C 83 % 1026,9 hPa 0,0 l/m 2 min 0 min 431 W/m 35,4 km/h (5 Bft) 95,74 %
21.02.2020 11:04 7,1 C 11,7 C 6,1 C 83 % 1026,9 hPa 0,0 l/m 2 min 0 min 421 W/m 16,1 km/h (3 Bft) 91,49 %
21.02.2020 11:06 7,1 C 12,2 C 6,7 C 83 % 1026,9 hPa 0,0 l/m 2 min 0 min 457 W/m 19,3 km/h (3 Bft) 95,65 %
21.02.2020 11:08 7,2 C 11,7 C 6,7 C 82 % 1027,1 hPa 0,0 l/m 2 min 0 min 471 W/m 29,0 km/h (5 Bft) 97,87 %
21.02.2020 11:10 7,2 C 10,0 C 6,7 C 82 % 1027,0 hPa 0,0 l/m 2 min 0 min 395 W/m 25,7 km/h (4 Bft) 97,87 %
21.02.2020 11:12 7,3 C 9,4 C 6,7 C 81 % 1027,0 hPa 0,0 l/m 2 min 0 min 292 W/m 19,3 km/h (3 Bft) 95,74 %
21.02.2020 11:14 7,3 C 8,9 C 6,7 C 81 % 1026,9 hPa 0,0 l/m 2 min 0 min 282 W/m 16,1 km/h (3 Bft) 97,87 %
21.02.2020 11:16 7,3 C 8,9 C 7,2 C 81 % 1026,9 hPa 0,0 l/m 2 min 0 min 276 W/m 12,9 km/h (3 Bft) 97,87 %
21.02.2020 11:18 7,3 C 8,3 C 7,2 C 81 % 1026,9 hPa 0,0 l/m 2 min 0 min 242 W/m 16,1 km/h (3 Bft) 95,65 %
21.02.2020 11:20 7,3 C 8,3 C 7,2 C 81 % 1027,0 hPa 0,0 l/m 2 min 0 min 225 W/m 25,7 km/h (4 Bft) 93,62 %
21.02.2020 11:22 7,3 C 8,3 C 6,7 C 81 % 1026,9 hPa 0,0 l/m 2 min 0 min 224 W/m 38,6 km/h (5 Bft) 97,87 %
21.02.2020 11:24 7,3 C 8,3 C 6,7 C 81 % 1026,9 hPa 0,0 l/m 2 min 0 min 233 W/m 12,9 km/h (3 Bft) 97,87 %
21.02.2020 11:26 7,3 C 8,3 C 7,2 C 81 % 1027,0 hPa 0,0 l/m 2 min 0 min 241 W/m 19,3 km/h (3 Bft) 95,74 %
21.02.2020 11:28 7,3 C 8,3 C 7,2 C 81 % 1027,0 hPa 0,0 l/m 2 min 0 min 244 W/m 12,9 km/h (3 Bft) 95,74 %
21.02.2020 11:30 7,3 C 8,9 C 7,2 C 81 % 1027,0 hPa 0,0 l/m 2 min 0 min 259 W/m 19,3 km/h (3 Bft) 93,48 %
21.02.2020 11:32 7,4 C 8,9 C 7,2 C 81 % 1027,0 hPa 0,0 l/m 2 min 0 min 258 W/m 12,9 km/h (3 Bft) 91,49 %
21.02.2020 11:34 7,4 C 9,4 C 7,2 C 81 % 1026,9 hPa 0,0 l/m 2 min 0 min 285 W/m 25,7 km/h (4 Bft) 93,62 %
21.02.2020 11:36 7,5 C 9,4 C 7,2 C 82 % 1027,0 hPa 0,0 l/m 2 min 0 min 318 W/m 12,9 km/h (3 Bft) 93,62 %
21.02.2020 11:38 7,6 C 10,0 C 7,8 C 82 % 1027,0 hPa 0,0 l/m 2 min 0 min 300 W/m 12,9 km/h (3 Bft) 93,62 %
21.02.2020 11:40 7,6 C 10,0 C 7,8 C 82 % 1027,0 hPa 0,0 l/m 2 min 0 min 291 W/m 16,1 km/h (3 Bft) 95,74 %
21.02.2020 11:42 7,7 C 9,4 C 7,8 C 81 % 1027,0 hPa 0,0 l/m 2 min 0 min 281 W/m 22,5 km/h (4 Bft) 95,65 %
21.02.2020 11:44 7,7 C 9,4 C 7,2 C 80 % 1027,1 hPa 0,0 l/m 2 min 0 min 277 W/m 22,5 km/h (4 Bft) 95,74 %
21.02.2020 11:46 7,7 C 10,6 C 7,8 C 80 % 1027,0 hPa 0,0 l/m 2 min 0 min 410 W/m 22,5 km/h (4 Bft) 95,74 %
21.02.2020 11:48 7,8 C 10,6 C 7,8 C 81 % 1027,0 hPa 0,0 l/m 2 min 0 min 466 W/m 12,9 km/h (3 Bft) 95,74 %
21.02.2020 11:50 7,9 C 10,6 C 8,3 C 81 % 1027,1 hPa 0,0 l/m 2 min 0 min 309 W/m 16,1 km/h (3 Bft) 95,74 %
21.02.2020 11:52 8,0 C 10,0 C 8,3 C 81 % 1027,0 hPa 0,0 l/m 2 min 0 min 277 W/m 16,1 km/h (3 Bft) 95,74 %
21.02.2020 11:54 8,1 C 9,4 C 8,9 C 81 % 1027,0 hPa 0,0 l/m 2 min 0 min 269 W/m 22,5 km/h (4 Bft) 93,48 %
21.02.2020 11:56 8,1 C 9,4 C 8,3 C 80 % 1027,0 hPa 0,0 l/m 2 min 0 min 257 W/m 25,7 km/h (4 Bft) 95,74 %
21.02.2020 11:58 8,1 C 8,9 C 8,3 C 80 % 1027,0 hPa 0,0 l/m 2 min 0 min 245 W/m 29,0 km/h (5 Bft) 95,74 %
21.02.2020 12:00 8,1 C 8,3 C 8,3 C 79 % 1027,0 hPa 0,0 l/m 2 min 0 min 236 W/m 22,5 km/h (4 Bft) 95,74 %
21.02.2020 12:02 8,2 C 8,9 C 8,9 C 79 % 1027,1 hPa 0,0 l/m 0 min 0 min 223 W/m 12,9 km/h (3 Bft) 95,74 %
21.02.2020 12:04 8,2 C 8,9 C 8,3 C 79 % 1027,2 hPa 0,0 l/m 0 min 0 min 218 W/m 9,7 km/h (2 Bft) 93,62 %
21.02.2020 12:08 8,2 C 8,3 C 8,3 C 79 % 1027,2 hPa 0,0 l/m 0 min 0 min 207 W/m 22,5 km/h (4 Bft) 97,85 %
21.02.2020 12:10 8,2 C 8,3 C 8,3 C 79 % 1027,2 hPa 0,0 l/m 0 min 0 min 200 W/m 12,9 km/h (3 Bft) 100,00 %
21.02.2020 12:12 8,2 C 8,3 C 8,3 C 79 % 1027,3 hPa 0,0 l/m 0 min 0 min 200 W/m 12,9 km/h (3 Bft) 100,00 %
21.02.2020 12:14 8,2 C 8,3 C 8,3 C 79 % 1027,2 hPa 0,0 l/m 0 min 0 min 199 W/m 16,1 km/h (3 Bft) 100,00 %
21.02.2020 12:16 8,2 C 8,3 C 8,3 C 79 % 1027,2 hPa 0,0 l/m 0 min 0 min 205 W/m 12,9 km/h (3 Bft) 100,00 %
21.02.2020 12:18 8,2 C 8,9 C 8,3 C 79 % 1027,2 hPa 0,0 l/m 0 min 0 min 208 W/m 12,9 km/h (3 Bft) 100,00 %
21.02.2020 12:20 8,3 C 8,9 C 8,3 C 79 % 1027,1 hPa 0,0 l/m 0 min 0 min 221 W/m 25,7 km/h (4 Bft) 100,00 %
21.02.2020 12:22 8,3 C 8,9 C 8,3 C 79 % 1027,1 hPa 0,0 l/m 2 min 0 min 236 W/m 19,3 km/h (3 Bft) 100,00 %
21.02.2020 12:24 8,3 C 8,9 C 8,3 C 79 % 1027,1 hPa 0,0 l/m 0 min 0 min 227 W/m 22,5 km/h (4 Bft) 100,00 %
21.02.2020 12:26 8,3 C 8,9 C 8,3 C 79 % 1027,0 hPa 0,0 l/m 0 min 0 min 212 W/m 12,9 km/h (3 Bft) 100,00 %
21.02.2020 12:28 8,3 C 8,9 C 8,3 C 79 % 1027,0 hPa 0,0 l/m 0 min 0 min 211 W/m 16,1 km/h (3 Bft) 100,00 %
21.02.2020 12:30 8,3 C 8,3 C 8,3 C 78 % 1027,0 hPa 0,0 l/m 0 min 0 min 222 W/m 22,5 km/h (4 Bft) 100,00 %
21.02.2020 12:32 8,3 C 8,9 C 8,3 C 78 % 1027,0 hPa 0,0 l/m 2 min 0 min 238 W/m 12,9 km/h (3 Bft) 100,00 %
21.02.2020 12:34 8,3 C 8,3 C 8,3 C 78 % 1027,0 hPa 0,0 l/m 2 min 0 min 244 W/m 22,5 km/h (4 Bft) 100,00 %
21.02.2020 12:36 8,3 C 8,3 C 8,3 C 78 % 1027,0 hPa 0,2 l/m 0 min 0 min 234 W/m 32,2 km/h (5 Bft) 100,00 %
21.02.2020 12:38 8,3 C 8,9 C 8,3 C 78 % 1027,0 hPa 0,0 l/m 2 min 0 min 243 W/m 25,7 km/h (4 Bft) 100,00 %
21.02.2020 12:40 8,3 C 8,9 C 8,3 C 78 % 1027,0 hPa 0,0 l/m 2 min 0 min 242 W/m 16,1 km/h (3 Bft) 97,83 %
21.02.2020 12:42 8,3 C 8,9 C 8,3 C 78 % 1027,0 hPa 0,0 l/m 0 min 0 min 220 W/m 19,3 km/h (3 Bft) 100,00 %
21.02.2020 12:44 8,3 C 8,3 C 8,3 C 79 % 1026,9 hPa 0,0 l/m 0 min 0 min 202 W/m 22,5 km/h (4 Bft) 97,87 %
21.02.2020 12:46 8,3 C 8,3 C 8,3 C 78 % 1026,9 hPa 0,0 l/m 0 min 0 min 196 W/m 22,5 km/h (4 Bft) 100,00 %
21.02.2020 12:48 8,2 C 8,3 C 7,8 C 78 % 1026,9 hPa 0,0 l/m 0 min 0 min 183 W/m 16,1 km/h (3 Bft) 95,74 %
21.02.2020 12:50 8,2 C 8,3 C 7,8 C 78 % 1026,8 hPa 0,0 l/m 0 min 0 min 168 W/m 19,3 km/h (3 Bft) 97,87 %
21.02.2020 12:52 8,2 C 8,3 C 7,8 C 78 % 1026,9 hPa 0,0 l/m 0 min 0 min 156 W/m 12,9 km/h (3 Bft) 97,83 %
21.02.2020 12:54 8,2 C 8,3 C 7,8 C 78 % 1026,9 hPa 0,0 l/m 0 min 0 min 152 W/m 16,1 km/h (3 Bft) 97,87 %
21.02.2020 12:56 8,2 C 8,3 C 7,8 C 78 % 1026,8 hPa 0,0 l/m 0 min 0 min 153 W/m 12,9 km/h (3 Bft) 97,87 %
21.02.2020 12:58 8,2 C 8,3 C 7,8 C 79 % 1026,8 hPa 0,0 l/m 0 min 0 min 156 W/m 19,3 km/h (3 Bft) 95,74 %
21.02.2020 13:00 8,2 C 8,3 C 8,3 C 79 % 1026,8 hPa 0,0 l/m 0 min 0 min 168 W/m 12,9 km/h (3 Bft) 97,87 %
21.02.2020 13:02 8,2 C 8,3 C 8,3 C 79 % 1026,8 hPa 0,0 l/m 0 min 0 min 190 W/m 16,1 km/h (3 Bft) 97,87 %
21.02.2020 13:04 8,2 C 8,3 C 8,3 C 78 % 1026,8 hPa 0,0 l/m 0 min 0 min 214 W/m 19,3 km/h (3 Bft) 97,83 %
21.02.2020 13:06 8,2 C 8,9 C 8,3 C 78 % 1026,8 hPa 0,0 l/m 0 min 0 min 228 W/m 22,5 km/h (4 Bft) 95,74 %
21.02.2020 13:08 8,2 C 8,9 C 8,3 C 78 % 1026,8 hPa 0,0 l/m 2 min 0 min 245 W/m 16,1 km/h (3 Bft) 97,87 %
21.02.2020 13:10 8,2 C 9,4 C 8,3 C 78 % 1026,8 hPa 0,0 l/m 2 min 0 min 261 W/m 19,3 km/h (3 Bft) 97,87 %
21.02.2020 13:12 8,3 C 9,4 C 8,9 C 78 % 1026,8 hPa 0,0 l/m 2 min 0 min 285 W/m 19,3 km/h (3 Bft) 97,87 %
21.02.2020 13:14 8,3 C 9,4 C 8,9 C 78 % 1026,7 hPa 0,0 l/m 2 min 0 min 314 W/m 29,0 km/h (5 Bft) 95,65 %
21.02.2020 13:16 8,3 C 9,4 C 8,9 C 78 % 1026,8 hPa 0,0 l/m 2 min 0 min 319 W/m 22,5 km/h (4 Bft) 97,87 %
21.02.2020 13:18 8,4 C 9,4 C 8,9 C 78 % 1026,8 hPa 0,0 l/m 2 min 0 min 318 W/m 25,7 km/h (4 Bft) 97,87 %
21.02.2020 13:20 8,4 C 9,4 C 8,9 C 78 % 1026,7 hPa 0,0 l/m 2 min 0 min 272 W/m 25,7 km/h (4 Bft) 97,87 %
21.02.2020 13:22 8,4 C 8,9 C 8,3 C 78 % 1026,7 hPa 0,0 l/m 2 min 0 min 244 W/m 29,0 km/h (5 Bft) 95,74 %
21.02.2020 13:24 8,5 C 8,9 C 8,3 C 78 % 1026,7 hPa 0,0 l/m 0 min 0 min 215 W/m 19,3 km/h (3 Bft) 95,74 %
21.02.2020 13:26 8,5 C 8,9 C 8,3 C 78 % 1026,7 hPa 0,0 l/m 0 min 0 min 212 W/m 29,0 km/h (5 Bft) 97,83 %
21.02.2020 13:28 8,4 C 8,3 C 8,3 C 77 % 1026,7 hPa 0,0 l/m 0 min 0 min 210 W/m 38,6 km/h (5 Bft) 97,87 %
21.02.2020 13:30 8,4 C 8,3 C 8,3 C 77 % 1026,7 hPa 0,0 l/m 0 min 0 min 205 W/m 19,3 km/h (3 Bft) 100,00 %
21.02.2020 13:32 8,4 C 8,3 C 8,3 C 77 % 1026,7 hPa 0,0 l/m 0 min 0 min 202 W/m 35,4 km/h (5 Bft) 97,87 %
21.02.2020 13:34 8,4 C 8,3 C 8,3 C 77 % 1026,8 hPa 0,0 l/m 0 min 0 min 204 W/m 29,0 km/h (5 Bft) 100,00 %
21.02.2020 13:36 8,4 C 8,3 C 8,3 C 77 % 1026,8 hPa 0,0 l/m 0 min 0 min 206 W/m 41,8 km/h (6 Bft) 100,00 %
21.02.2020 13:38 8,4 C 8,3 C 8,3 C 77 % 1026,8 hPa 0,0 l/m 0 min 0 min 192 W/m 25,7 km/h (4 Bft) 97,83 %
21.02.2020 13:40 8,4 C 8,3 C 8,3 C 78 % 1026,8 hPa 0,0 l/m 0 min 0 min 175 W/m 19,3 km/h (3 Bft) 97,87 %
21.02.2020 13:42 8,5 C 8,3 C 8,3 C 78 % 1026,8 hPa 0,0 l/m 0 min 0 min 165 W/m 16,1 km/h (3 Bft) 100,00 %
21.02.2020 13:44 8,5 C 8,9 C 8,3 C 78 % 1026,9 hPa 0,0 l/m 0 min 0 min 166 W/m 12,9 km/h (3 Bft) 100,00 %
21.02.2020 13:46 8,5 C 8,3 C 8,3 C 78 % 1026,9 hPa 0,0 l/m 0 min 0 min 167 W/m 22,5 km/h (4 Bft) 100,00 %
21.02.2020 13:48 8,5 C 8,3 C 8,3 C 78 % 1026,9 hPa 0,0 l/m 0 min 0 min 161 W/m 19,3 km/h (3 Bft) 100,00 %
21.02.2020 13:50 8,5 C 8,3 C 8,3 C 78 % 1026,9 hPa 0,0 l/m 0 min 0 min 157 W/m 16,1 km/h (3 Bft) 100,00 %
21.02.2020 13:52 8,5 C 8,3 C 8,3 C 78 % 1026,9 hPa 0,0 l/m 0 min 0 min 158 W/m 22,5 km/h (4 Bft) 97,87 %
21.02.2020 13:54 8,5 C 8,3 C 8,3 C 78 % 1026,8 hPa 0,0 l/m 0 min 0 min 154 W/m 19,3 km/h (3 Bft) 100,00 %
21.02.2020 13:56 8,5 C 8,3 C 8,3 C 77 % 1026,9 hPa 0,0 l/m 0 min 0 min 148 W/m 25,7 km/h (4 Bft) 97,87 %
21.02.2020 13:58 8,5 C 8,3 C 7,8 C 77 % 1026,8 hPa 0,0 l/m 0 min 0 min 142 W/m 22,5 km/h (4 Bft) 97,87 %
21.02.2020 14:00 8,4 C 8,3 C 7,8 C 77 % 1026,7 hPa 0,0 l/m 0 min 0 min 149 W/m 16,1 km/h (3 Bft) 100,00 %
21.02.2020 14:02 8,4 C 8,3 C 7,8 C 77 % 1026,7 hPa 0,0 l/m 0 min 0 min 152 W/m 29,0 km/h (5 Bft) 100,00 %
21.02.2020 14:04 8,4 C 8,3 C 7,8 C 77 % 1026,7 hPa 0,0 l/m 0 min 0 min 151 W/m 25,7 km/h (4 Bft) 100,00 %
21.02.2020 14:06 8,4 C 8,3 C 7,8 C 77 % 1026,7 hPa 0,0 l/m 0 min 0 min 142 W/m 19,3 km/h (3 Bft) 100,00 %
21.02.2020 14:08 8,4 C 8,3 C 7,8 C 77 % 1026,7 hPa 0,0 l/m 0 min 0 min 137 W/m 25,7 km/h (4 Bft) 100,00 %
21.02.2020 14:10 8,4 C 8,3 C 7,8 C 77 % 1026,7 hPa 0,0 l/m 0 min 0 min 133 W/m 22,5 km/h (4 Bft) 100,00 %
21.02.2020 14:12 8,4 C 8,3 C 7,8 C 77 % 1026,5 hPa 0,0 l/m 0 min 0 min 133 W/m 25,7 km/h (4 Bft) 100,00 %
21.02.2020 14:14 8,4 C 8,3 C 7,8 C 78 % 1026,5 hPa 0,0 l/m 0 min 0 min 130 W/m 12,9 km/h (3 Bft) 100,00 %
21.02.2020 14:16 8,4 C 8,3 C 7,8 C 78 % 1026,4 hPa 0,0 l/m 0 min 0 min 122 W/m 29,0 km/h (5 Bft) 100,00 %
21.02.2020 14:18 8,4 C 8,3 C 7,8 C 78 % 1026,4 hPa 0,0 l/m 0 min 0 min 113 W/m 16,1 km/h (3 Bft) 100,00 %
21.02.2020 14:20 8,4 C 8,3 C 7,8 C 78 % 1026,5 hPa 0,0 l/m 0 min 0 min 105 W/m 29,0 km/h (5 Bft) 95,74 %
21.02.2020 14:22 8,4 C 8,3 C 7,8 C 78 % 1026,4 hPa 0,0 l/m 0 min 0 min 97 W/m 25,7 km/h (4 Bft) 97,87 %
21.02.2020 14:24 8,4 C 7,8 C 7,8 C 78 % 1026,3 hPa 0,0 l/m 0 min 0 min 90 W/m 29,0 km/h (5 Bft) 97,83 %
21.02.2020 14:26 8,4 C 7,8 C 7,8 C 77 % 1026,3 hPa 0,0 l/m 0 min 0 min 90 W/m 25,7 km/h (4 Bft) 97,87 %
21.02.2020 14:28 8,4 C 8,3 C 7,8 C 78 % 1026,3 hPa 0,0 l/m 0 min 0 min 88 W/m 12,9 km/h (3 Bft) 95,74 %
21.02.2020 14:30 8,4 C 8,3 C 7,8 C 78 % 1026,3 hPa 0,0 l/m 0 min 0 min 88 W/m 6,4 km/h (2 Bft) 95,74 %
21.02.2020 14:32 8,4 C 8,3 C 7,8 C 78 % 1026,3 hPa 0,0 l/m 0 min 0 min 90 W/m 19,3 km/h (3 Bft) 97,87 %
21.02.2020 14:34 8,4 C 8,3 C 7,8 C 78 % 1026,3 hPa 0,0 l/m 0 min 0 min 89 W/m 16,1 km/h (3 Bft) 97,87 %
21.02.2020 14:36 8,4 C 8,3 C 7,8 C 78 % 1026,3 hPa 0,0 l/m 0 min 0 min 90 W/m 16,1 km/h (3 Bft) 95,65 %
21.02.2020 14:38 8,4 C 8,3 C 7,8 C 78 % 1026,4 hPa 0,0 l/m 0 min 0 min 88 W/m 6,4 km/h (2 Bft) 95,74 %
21.02.2020 14:40 8,4 C 7,8 C 7,8 C 78 % 1026,4 hPa 0,0 l/m 0 min 0 min 84 W/m 19,3 km/h (3 Bft) 95,74 %
21.02.2020 14:42 8,4 C 8,3 C 7,8 C 79 % 1026,3 hPa 0,0 l/m 0 min 0 min 89 W/m 19,3 km/h (3 Bft) 95,74 %
21.02.2020 14:44 8,4 C 8,3 C 7,8 C 78 % 1026,2 hPa 0,0 l/m 0 min 0 min 95 W/m 22,5 km/h (4 Bft) 93,62 %
21.02.2020 14:46 8,4 C 8,3 C 7,8 C 78 % 1026,2 hPa 0,0 l/m 0 min 0 min 96 W/m 22,5 km/h (4 Bft) 93,62 %
21.02.2020 14:48 8,4 C 7,8 C 7,8 C 78 % 1026,3 hPa 0,0 l/m 0 min 0 min 95 W/m 35,4 km/h (5 Bft) 95,65 %
21.02.2020 14:50 8,4 C 7,8 C 7,8 C 78 % 1026,2 hPa 0,0 l/m 0 min 0 min 93 W/m 19,3 km/h (3 Bft) 95,74 %
21.02.2020 14:52 8,4 C 8,3 C 7,8 C 78 % 1026,4 hPa 0,0 l/m 0 min 0 min 87 W/m 16,1 km/h (3 Bft) 93,62 %
21.02.2020 14:54 8,4 C 8,3 C 7,8 C 78 % 1026,4 hPa 0,0 l/m 0 min 0 min 88 W/m 19,3 km/h (3 Bft) 95,74 %
21.02.2020 14:56 8,4 C 8,3 C 7,8 C 78 % 1026,5 hPa 0,0 l/m 0 min 0 min 84 W/m 22,5 km/h (4 Bft) 95,74 %
21.02.2020 14:58 8,4 C 8,3 C 7,8 C 78 % 1026,4 hPa 0,0 l/m 0 min 0 min 84 W/m 12,9 km/h (3 Bft) 95,74 %
21.02.2020 15:00 8,4 C 8,3 C 7,8 C 78 % 1026,4 hPa 0,0 l/m 0 min 0 min 85 W/m 19,3 km/h (3 Bft) 95,65 %
21.02.2020 15:02 8,4 C 8,3 C 7,8 C 78 % 1026,4 hPa 0,0 l/m 0 min 0 min 88 W/m 29,0 km/h (5 Bft) 93,62 %
21.02.2020 15:04 8,4 C 8,3 C 7,8 C 78 % 1026,3 hPa 0,0 l/m 0 min 0 min 91 W/m 22,5 km/h (4 Bft) 95,74 %
21.02.2020 15:06 8,4 C 8,3 C 7,8 C 78 % 1026,4 hPa 0,0 l/m 0 min 0 min 97 W/m 19,3 km/h (3 Bft) 97,87 %
21.02.2020 15:08 8,5 C 8,3 C 7,8 C 79 % 1026,4 hPa 0,0 l/m 0 min 0 min 102 W/m 22,5 km/h (4 Bft) 95,74 %
21.02.2020 15:10 8,5 C 8,3 C 7,8 C 79 % 1026,4 hPa 0,0 l/m 0 min 0 min 108 W/m 19,3 km/h (3 Bft) 95,74 %
21.02.2020 15:12 8,5 C 8,3 C 7,8 C 79 % 1026,4 hPa 0,0 l/m 0 min 0 min 109 W/m 9,7 km/h (2 Bft) 95,65 %
21.02.2020 15:14 8,5 C 8,3 C 7,8 C 79 % 1026,4 hPa 0,0 l/m 0 min 0 min 114 W/m 9,7 km/h (2 Bft) 95,74 %
21.02.2020 15:16 8,6 C 8,3 C 7,8 C 79 % 1026,4 hPa 0,0 l/m 0 min 0 min 114 W/m 16,1 km/h (3 Bft) 97,87 %
21.02.2020 15:18 8,6 C 8,3 C 7,8 C 79 % 1026,3 hPa 0,0 l/m 0 min 0 min 107 W/m 22,5 km/h (4 Bft) 95,74 %
21.02.2020 15:20 8,6 C 8,3 C 7,8 C 79 % 1026,4 hPa 0,0 l/m 0 min 0 min 100 W/m 19,3 km/h (3 Bft) 97,87 %
21.02.2020 15:22 8,6 C 8,3 C 7,8 C 78 % 1026,3 hPa 0,0 l/m 0 min 0 min 100 W/m 22,5 km/h (4 Bft) 97,83 %
21.02.2020 15:24 8,6 C 8,3 C 7,8 C 79 % 1026,3 hPa 0,0 l/m 0 min 0 min 103 W/m 19,3 km/h (3 Bft) 93,62 %
21.02.2020 15:26 8,6 C 8,3 C 7,8 C 79 % 1026,2 hPa 0,0 l/m 0 min 0 min 101 W/m 19,3 km/h (3 Bft) 97,87 %
21.02.2020 15:28 8,6 C 8,3 C 7,8 C 79 % 1026,3 hPa 0,0 l/m 0 min 0 min 98 W/m 16,1 km/h (3 Bft) 95,74 %
21.02.2020 15:30 8,7 C 8,3 C 7,8 C 79 % 1026,3 hPa 0,0 l/m 0 min 0 min 98 W/m 22,5 km/h (4 Bft) 95,74 %
21.02.2020 15:32 8,7 C 8,3 C 7,8 C 79 % 1026,2 hPa 0,0 l/m 0 min 0 min 98 W/m 12,9 km/h (3 Bft) 95,74 %
21.02.2020 15:34 8,7 C 8,3 C 8,3 C 79 % 1026,1 hPa 0,0 l/m 0 min 0 min 100 W/m 16,1 km/h (3 Bft) 97,83 %
21.02.2020 15:36 8,7 C 8,3 C 8,3 C 79 % 1026,0 hPa 0,0 l/m 0 min 0 min 100 W/m 16,1 km/h (3 Bft) 97,87 %
21.02.2020 15:38 8,7 C 8,3 C 8,3 C 79 % 1026,0 hPa 0,0 l/m 0 min 0 min 100 W/m 25,7 km/h (4 Bft) 97,87 %
21.02.2020 15:40 8,7 C 8,3 C 8,3 C 78 % 1025,9 hPa 0,0 l/m 0 min 0 min 102 W/m 22,5 km/h (4 Bft) 97,87 %
21.02.2020 15:42 8,7 C 8,3 C 7,8 C 78 % 1025,8 hPa 0,0 l/m 0 min 0 min 102 W/m 19,3 km/h (3 Bft) 93,62 %
21.02.2020 15:44 8,8 C 8,3 C 7,8 C 78 % 1025,9 hPa 0,0 l/m 0 min 0 min 102 W/m 19,3 km/h (3 Bft) 97,87 %
21.02.2020 15:46 8,8 C 8,3 C 7,8 C 78 % 1025,9 hPa 0,0 l/m 0 min 0 min 102 W/m 19,3 km/h (3 Bft) 97,83 %
21.02.2020 15:48 8,8 C 8,3 C 7,8 C 78 % 1025,9 hPa 0,0 l/m 0 min 0 min 102 W/m 19,3 km/h (3 Bft) 97,87 %
21.02.2020 15:50 8,8 C 8,3 C 7,8 C 78 % 1025,9 hPa 0,0 l/m 0 min 0 min 100 W/m 16,1 km/h (3 Bft) 97,87 %
21.02.2020 15:52 8,8 C 8,3 C 8,3 C 79 % 1025,9 hPa 0,0 l/m 0 min 0 min 97 W/m 16,1 km/h (3 Bft) 97,87 %
21.02.2020 15:54 8,8 C 8,3 C 7,8 C 78 % 1025,9 hPa 0,0 l/m 0 min 0 min 94 W/m 19,3 km/h (3 Bft) 97,87 %
21.02.2020 15:56 8,8 C 8,3 C 7,8 C 78 % 1025,9 hPa 0,0 l/m 0 min 0 min 94 W/m 22,5 km/h (4 Bft) 95,65 %
21.02.2020 15:58 8,8 C 8,3 C 7,8 C 78 % 1025,8 hPa 0,0 l/m 0 min 0 min 97 W/m 19,3 km/h (3 Bft) 97,87 %
21.02.2020 16:00 8,8 C 8,3 C 8,3 C 78 % 1025,9 hPa 0,0 l/m 0 min 0 min 100 W/m 22,5 km/h (4 Bft) 95,74 %
21.02.2020 16:02 8,8 C 8,9 C 8,3 C 78 % 1025,9 hPa 0,0 l/m 0 min 0 min 104 W/m 25,7 km/h (4 Bft) 93,62 %
21.02.2020 16:04 8,8 C 8,9 C 8,3 C 78 % 1025,8 hPa 0,0 l/m 0 min 0 min 96 W/m 19,3 km/h (3 Bft) 97,87 %
21.02.2020 16:06 8,8 C 8,3 C 8,3 C 78 % 1025,8 hPa 0,0 l/m 0 min 0 min 82 W/m 16,1 km/h (3 Bft) 97,87 %
21.02.2020 16:08 8,8 C 8,3 C 7,8 C 78 % 1025,8 hPa 0,0 l/m 0 min 0 min 74 W/m 19,3 km/h (3 Bft) 100,00 %
21.02.2020 16:10 8,8 C 8,3 C 8,3 C 78 % 1025,8 hPa 0,0 l/m 0 min 0 min 86 W/m 12,9 km/h (3 Bft) 100,00 %
21.02.2020 16:12 8,9 C 8,3 C 8,3 C 78 % 1025,7 hPa 0,0 l/m 0 min 0 min 90 W/m 16,1 km/h (3 Bft) 100,00 %
21.02.2020 16:14 8,9 C 8,9 C 8,3 C 78 % 1025,8 hPa 0,0 l/m 0 min 0 min 95 W/m 12,9 km/h (3 Bft) 97,87 %
21.02.2020 16:16 8,9 C 8,9 C 8,3 C 78 % 1025,8 hPa 0,0 l/m 0 min 0 min 93 W/m 19,3 km/h (3 Bft) 100,00 %
21.02.2020 16:18 8,9 C 8,9 C 8,3 C 78 % 1025,7 hPa 0,0 l/m 0 min 0 min 93 W/m 29,0 km/h (5 Bft) 100,00 %
21.02.2020 16:20 8,9 C 8,9 C 8,3 C 78 % 1025,7 hPa 0,0 l/m 2 min 0 min 118 W/m 19,3 km/h (3 Bft) 100,00 %
21.02.2020 16:22 8,9 C 8,9 C 8,3 C 78 % 1025,8 hPa 0,0 l/m 2 min 0 min 111 W/m 19,3 km/h (3 Bft) 100,00 %
21.02.2020 16:24 8,9 C 8,9 C 8,3 C 78 % 1025,8 hPa 0,0 l/m 0 min 0 min 91 W/m 19,3 km/h (3 Bft) 100,00 %
21.02.2020 16:26 8,9 C 8,9 C 8,3 C 78 % 1025,8 hPa 0,0 l/m 0 min 0 min 74 W/m 25,7 km/h (4 Bft) 100,00 %
21.02.2020 16:28 9,0 C 8,9 C 8,3 C 77 % 1025,9 hPa 0,0 l/m 0 min 0 min 83 W/m 19,3 km/h (3 Bft) 100,00 %
21.02.2020 16:30 9,0 C 8,9 C 8,3 C 77 % 1025,9 hPa 0,0 l/m 0 min 0 min 90 W/m 29,0 km/h (5 Bft) 100,00 %
21.02.2020 16:32 9,1 C 8,9 C 8,3 C 77 % 1025,9 hPa 0,0 l/m 0 min 0 min 85 W/m 32,2 km/h (5 Bft) 100,00 %
21.02.2020 16:34 9,1 C 8,9 C 8,3 C 77 % 1025,9 hPa 0,0 l/m 0 min 0 min 85 W/m 16,1 km/h (3 Bft) 100,00 %
21.02.2020 16:36 9,1 C 8,9 C 8,3 C 77 % 1025,8 hPa 0,0 l/m 0 min 0 min 77 W/m 9,7 km/h (2 Bft) 100,00 %
21.02.2020 16:38 9,1 C 8,9 C 8,3 C 77 % 1025,8 hPa 0,0 l/m 0 min 0 min 63 W/m 25,7 km/h (4 Bft) 100,00 %
21.02.2020 16:40 9,1 C 8,9 C 8,3 C 77 % 1025,8 hPa 0,0 l/m 0 min 0 min 64 W/m 16,1 km/h (3 Bft) 97,87 %
21.02.2020 16:42 9,1 C 8,9 C 8,3 C 77 % 1025,7 hPa 0,0 l/m 0 min 0 min 60 W/m 19,3 km/h (3 Bft) 100,00 %
21.02.2020 16:44 9,1 C 8,3 C 8,3 C 77 % 1025,7 hPa 0,0 l/m 0 min 0 min 54 W/m 22,5 km/h (4 Bft) 100,00 %
21.02.2020 16:46 9,1 C 8,3 C 7,8 C 77 % 1025,7 hPa 0,0 l/m 0 min 0 min 53 W/m 25,7 km/h (4 Bft) 100,00 %
21.02.2020 16:48 9,1 C 8,3 C 7,8 C 77 % 1025,7 hPa 0,0 l/m 0 min 0 min 55 W/m 19,3 km/h (3 Bft) 100,00 %
21.02.2020 16:50 9,1 C 8,3 C 8,3 C 77 % 1025,8 hPa 0,0 l/m 0 min 0 min 64 W/m 25,7 km/h (4 Bft) 100,00 %
21.02.2020 16:52 9,1 C 8,9 C 8,3 C 77 % 1025,8 hPa 0,0 l/m 0 min 0 min 68 W/m 32,2 km/h (5 Bft) 100,00 %
21.02.2020 16:54 9,1 C 8,9 C 8,3 C 77 % 1025,8 hPa 0,0 l/m 0 min 0 min 73 W/m 32,2 km/h (5 Bft) 100,00 %
21.02.2020 16:56 9,1 C 8,3 C 8,3 C 77 % 1025,8 hPa 0,0 l/m 0 min 0 min 70 W/m 25,7 km/h (4 Bft) 97,83 %
21.02.2020 16:58 9,1 C 8,9 C 8,3 C 77 % 1025,8 hPa 0,0 l/m 2 min 0 min 72 W/m 22,5 km/h (4 Bft) 100,00 %
21.02.2020 17:00 9,1 C 8,9 C 8,3 C 77 % 1025,8 hPa 0,0 l/m 2 min 0 min 69 W/m 29,0 km/h (5 Bft) 95,74 %
21.02.2020 17:02 9,1 C 8,3 C 7,8 C 77 % 1026,0 hPa 0,0 l/m 0 min 0 min 60 W/m 25,7 km/h (4 Bft) 100,00 %
21.02.2020 17:04 9,1 C 8,3 C 7,8 C 77 % 1025,7 hPa 0,0 l/m 2 min 0 min 64 W/m 32,2 km/h (5 Bft) 100,00 %
21.02.2020 17:06 9,1 C 8,3 C 7,8 C 76 % 1025,6 hPa 0,0 l/m 2 min 0 min 65 W/m 32,2 km/h (5 Bft) 97,83 %
21.02.2020 17:08 9,1 C 8,3 C 7,8 C 76 % 1025,7 hPa 0,0 l/m 0 min 0 min 58 W/m 32,2 km/h (5 Bft) 100,00 %
21.02.2020 17:10 9,1 C 8,3 C 7,8 C 77 % 1025,8 hPa 0,0 l/m 0 min 0 min 54 W/m 22,5 km/h (4 Bft) 100,00 %
21.02.2020 17:12 9,1 C 8,3 C 7,8 C 77 % 1025,8 hPa 0,0 l/m 0 min 0 min 52 W/m 29,0 km/h (5 Bft) 95,74 %
21.02.2020 17:14 9,1 C 8,3 C 7,8 C 77 % 1025,8 hPa 0,0 l/m 0 min 0 min 45 W/m 22,5 km/h (4 Bft) 100,00 %
21.02.2020 17:16 9,1 C 8,3 C 7,8 C 77 % 1025,8 hPa 0,0 l/m 0 min 0 min 37 W/m 16,1 km/h (3 Bft) 100,00 %
21.02.2020 17:18 9,1 C 8,3 C 7,8 C 77 % 1025,8 hPa 0,0 l/m 0 min 0 min 36 W/m 25,7 km/h (4 Bft) 100,00 %
21.02.2020 17:20 9,0 C 8,3 C 7,8 C 77 % 1025,8 hPa 0,0 l/m 0 min 0 min 31 W/m 35,4 km/h (5 Bft) 100,00 %
21.02.2020 17:22 9,0 C 8,3 C 7,8 C 77 % 1025,7 hPa 0,0 l/m 0 min 0 min 29 W/m 22,5 km/h (4 Bft) 100,00 %
21.02.2020 17:24 8,9 C 8,3 C 7,8 C 77 % 1025,8 hPa 0,0 l/m 0 min 0 min 25 W/m 29,0 km/h (5 Bft) 97,87 %
21.02.2020 17:26 8,9 C 8,3 C 7,8 C 77 % 1025,7 hPa 0,0 l/m 0 min 0 min 26 W/m 19,3 km/h (3 Bft) 100,00 %
21.02.2020 17:28 8,9 C 8,3 C 7,8 C 77 % 1025,7 hPa 0,0 l/m 0 min 0 min 24 W/m 22,5 km/h (4 Bft) 100,00 %
21.02.2020 17:30 8,9 C 7,8 C 7,8 C 77 % 1025,7 hPa 0,0 l/m 0 min 0 min 19 W/m 19,3 km/h (3 Bft) 100,00 %
21.02.2020 17:32 8,9 C 7,8 C 7,2 C 77 % 1025,7 hPa 0,0 l/m 0 min 0 min 20 W/m 35,4 km/h (5 Bft) 100,00 %
21.02.2020 17:34 8,8 C 7,8 C 7,2 C 77 % 1025,7 hPa 0,0 l/m 0 min 0 min 20 W/m 35,4 km/h (5 Bft) 97,87 %
21.02.2020 17:36 8,8 C 7,8 C 7,2 C 78 % 1025,7 hPa 0,0 l/m 0 min 0 min 17 W/m 16,1 km/h (3 Bft) 97,87 %
21.02.2020 17:38 8,8 C 7,8 C 7,2 C 78 % 1025,7 hPa 0,0 l/m 0 min 0 min 13 W/m 19,3 km/h (3 Bft) 100,00 %
21.02.2020 17:40 8,7 C 7,8 C 7,2 C 78 % 1025,7 hPa 0,0 l/m 0 min 0 min 11 W/m 35,4 km/h (5 Bft) 100,00 %
21.02.2020 17:42 8,7 C 7,8 C 7,2 C 78 % 1025,7 hPa 0,0 l/m 0 min 0 min 10 W/m 32,2 km/h (5 Bft) 93,48 %
21.02.2020 17:44 8,7 C 7,8 C 7,2 C 79 % 1025,7 hPa 0,0 l/m 0 min 0 min 8 W/m 25,7 km/h (4 Bft) 95,74 %
21.02.2020 17:46 8,6 C 7,8 C 7,2 C 79 % 1025,6 hPa 0,0 l/m 0 min 0 min 7 W/m 29,0 km/h (5 Bft) 95,74 %
21.02.2020 17:48 8,6 C 7,8 C 7,2 C 79 % 1025,7 hPa 0,0 l/m 0 min 0 min 7 W/m 29,0 km/h (5 Bft) 95,74 %
21.02.2020 17:50 8,6 C 7,8 C 7,2 C 79 % 1025,7 hPa 0,0 l/m 0 min 0 min 5 W/m 29,0 km/h (5 Bft) 95,74 %
21.02.2020 17:52 8,6 C 7,8 C 7,2 C 79 % 1025,7 hPa 0,0 l/m 0 min 0 min 3 W/m 22,5 km/h (4 Bft) 91,49 %
21.02.2020 17:54 8,5 C 7,8 C 7,2 C 79 % 1025,7 hPa 0,0 l/m 0 min 0 min 0 W/m 29,0 km/h (5 Bft) 93,48 %
21.02.2020 17:56 8,5 C 7,8 C 7,2 C 79 % 1025,6 hPa 0,0 l/m 0 min 0 min 0 W/m 32,2 km/h (5 Bft) 95,74 %
21.02.2020 17:58 8,4 C 7,8 C 7,2 C 79 % 1025,7 hPa 0,0 l/m 0 min 0 min 0 W/m 22,5 km/h (4 Bft) 95,74 %
21.02.2020 18:00 8,4 C 7,8 C 7,2 C 79 % 1025,7 hPa 0,0 l/m 0 min 0 min 0 W/m 22,5 km/h (4 Bft) 93,62 %
21.02.2020 18:02 8,4 C 7,8 C 7,2 C 79 % 1025,7 hPa 0,0 l/m 0 min 0 min 0 W/m 22,5 km/h (4 Bft) 95,74 %
21.02.2020 18:04 8,4 C 7,8 C 7,2 C 79 % 1025,7 hPa 0,0 l/m 0 min 0 min 0 W/m 22,5 km/h (4 Bft) 97,83 %
21.02.2020 18:08 8,3 C 7,2 C 7,2 C 80 % 1025,7 hPa 0,0 l/m 0 min 0 min 0 W/m 25,7 km/h (4 Bft) 92,55 %
21.02.2020 18:10 8,3 C 7,8 C 7,2 C 79 % 1025,7 hPa 0,0 l/m 0 min 0 min 0 W/m 38,6 km/h (5 Bft) 91,49 %
21.02.2020 18:12 8,3 C 7,2 C 7,2 C 79 % 1025,7 hPa 0,0 l/m 0 min 0 min 0 W/m 35,4 km/h (5 Bft) 45,00 %
21.02.2020 18:14 8,3 C 7,2 C 6,7 C 79 % 1025,7 hPa 0,0 l/m 0 min 0 min 0 W/m 25,7 km/h (4 Bft) 51,11 %
21.02.2020 18:16 8,3 C 7,2 C 6,7 C 79 % 1025,6 hPa 0,0 l/m 0 min 0 min 0 W/m 25,7 km/h (4 Bft) 93,48 %
21.02.2020 18:18 8,3 C 7,2 C 6,7 C 79 % 1025,6 hPa 0,0 l/m 0 min 0 min 0 W/m 25,7 km/h (4 Bft) 91,49 %
21.02.2020 18:20 8,3 C 7,2 C 6,7 C 79 % 1025,6 hPa 0,0 l/m 0 min 0 min 0 W/m 38,6 km/h (5 Bft) 93,62 %
21.02.2020 18:22 8,3 C 7,2 C 7,2 C 79 % 1025,6 hPa 0,0 l/m 0 min 0 min 0 W/m 22,5 km/h (4 Bft) 91,49 %
21.02.2020 18:24 8,2 C 7,2 C 7,2 C 79 % 1025,6 hPa 0,0 l/m 0 min 0 min 0 W/m 29,0 km/h (5 Bft) 93,62 %
21.02.2020 18:26 8,2 C 7,2 C 7,2 C 79 % 1025,7 hPa 0,0 l/m 0 min 0 min 0 W/m 19,3 km/h (3 Bft) 89,36 %
21.02.2020 18:28 8,2 C 7,2 C 7,2 C 79 % 1025,7 hPa 0,0 l/m 0 min 0 min 0 W/m 19,3 km/h (3 Bft) 95,65 %
21.02.2020 18:30 8,2 C 7,2 C 7,2 C 79 % 1025,7 hPa 0,0 l/m 0 min 0 min 0 W/m 19,3 km/h (3 Bft) 97,87 %
21.02.2020 18:32 8,2 C 7,2 C 7,2 C 79 % 1025,7 hPa 0,0 l/m 0 min 0 min 0 W/m 32,2 km/h (5 Bft) 95,74 %
21.02.2020 18:34 8,2 C 7,2 C 7,2 C 79 % 1025,6 hPa 0,0 l/m 0 min 0 min 0 W/m 16,1 km/h (3 Bft) 95,74 %
21.02.2020 18:36 8,2 C 7,2 C 7,2 C 79 % 1025,6 hPa 0,0 l/m 0 min 0 min 0 W/m 32,2 km/h (5 Bft) 93,62 %
21.02.2020 18:38 8,2 C 7,2 C 7,2 C 79 % 1025,6 hPa 0,0 l/m 0 min 0 min 0 W/m 25,7 km/h (4 Bft) 95,65 %
21.02.2020 18:40 8,2 C 7,2 C 7,2 C 79 % 1025,7 hPa 0,0 l/m 0 min 0 min 0 W/m 19,3 km/h (3 Bft) 93,62 %
21.02.2020 18:42 8,2 C 7,2 C 6,7 C 79 % 1025,7 hPa 0,0 l/m 0 min 0 min 0 W/m 29,0 km/h (5 Bft) 95,74 %
21.02.2020 18:44 8,2 C 7,2 C 7,2 C 79 % 1025,8 hPa 0,0 l/m 0 min 0 min 0 W/m 22,5 km/h (4 Bft) 97,87 %
21.02.2020 18:46 8,2 C 7,2 C 7,2 C 79 % 1025,8 hPa 0,0 l/m 0 min 0 min 0 W/m 25,7 km/h (4 Bft) 97,87 %
21.02.2020 18:48 8,2 C 7,2 C 7,2 C 79 % 1025,8 hPa 0,0 l/m 0 min 0 min 0 W/m 19,3 km/h (3 Bft) 97,83 %
21.02.2020 18:50 8,2 C 7,2 C 6,7 C 79 % 1025,9 hPa 0,0 l/m 0 min 0 min 0 W/m 16,1 km/h (3 Bft) 95,74 %
21.02.2020 18:52 8,2 C 7,2 C 6,7 C 79 % 1025,9 hPa 0,0 l/m 0 min 0 min 0 W/m 19,3 km/h (3 Bft) 100,00 %
21.02.2020 18:54 8,2 C 7,2 C 7,2 C 79 % 1025,9 hPa 0,0 l/m 0 min 0 min 0 W/m 19,3 km/h (3 Bft) 100,00 %
21.02.2020 18:56 8,2 C 7,8 C 7,2 C 79 % 1026,0 hPa 0,0 l/m 0 min 0 min 0 W/m 12,9 km/h (3 Bft) 100,00 %
21.02.2020 18:58 8,2 C 7,2 C 6,7 C 79 % 1026,0 hPa 0,0 l/m 0 min 0 min 0 W/m 16,1 km/h (3 Bft) 97,87 %
21.02.2020 19:00 8,2 C 7,2 C 7,2 C 79 % 1025,9 hPa 0,0 l/m 0 min 0 min 0 W/m 16,1 km/h (3 Bft) 100,00 %
21.02.2020 19:02 8,2 C 7,2 C 6,7 C 79 % 1025,9 hPa 0,0 l/m 0 min 0 min 0 W/m 12,9 km/h (3 Bft) 100,00 %
21.02.2020 19:04 8,2 C 7,2 C 6,7 C 79 % 1026,0 hPa 0,0 l/m 0 min 0 min 0 W/m 22,5 km/h (4 Bft) 100,00 %
21.02.2020 19:06 8,2 C 7,8 C 7,2 C 79 % 1025,9 hPa 0,0 l/m 0 min 0 min 0 W/m 22,5 km/h (4 Bft) 100,00 %
21.02.2020 19:08 8,2 C 7,8 C 7,2 C 78 % 1026,0 hPa 0,0 l/m 0 min 0 min 0 W/m 16,1 km/h (3 Bft) 100,00 %
21.02.2020 19:10 8,2 C 7,8 C 7,2 C 78 % 1026,0 hPa 0,0 l/m 0 min 0 min 0 W/m 22,5 km/h (4 Bft) 100,00 %
21.02.2020 19:12 8,2 C 7,8 C 7,2 C 78 % 1026,2 hPa 0,0 l/m 0 min 0 min 0 W/m 32,2 km/h (5 Bft) 100,00 %
21.02.2020 19:14 8,2 C 7,8 C 7,2 C 77 % 1026,1 hPa 0,0 l/m 0 min 0 min 0 W/m 25,7 km/h (4 Bft) 97,87 %
21.02.2020 19:16 8,2 C 7,8 C 7,2 C 77 % 1026,1 hPa 0,0 l/m 0 min 0 min 0 W/m 19,3 km/h (3 Bft) 100,00 %
21.02.2020 19:18 8,2 C 7,8 C 7,2 C 77 % 1026,1 hPa 0,0 l/m 0 min 0 min 0 W/m 16,1 km/h (3 Bft) 100,00 %
21.02.2020 19:20 8,2 C 7,8 C 7,2 C 77 % 1026,0 hPa 0,0 l/m 0 min 0 min 0 W/m 41,8 km/h (6 Bft) 100,00 %
21.02.2020 19:22 8,3 C 7,8 C 7,2 C 77 % 1026,0 hPa 0,0 l/m 0 min 0 min 0 W/m 35,4 km/h (5 Bft) 100,00 %
21.02.2020 19:24 8,3 C 7,8 C 7,2 C 77 % 1026,1 hPa 0,0 l/m 0 min 0 min 0 W/m 19,3 km/h (3 Bft) 100,00 %
21.02.2020 19:26 8,3 C 7,8 C 7,2 C 77 % 1026,0 hPa 0,0 l/m 0 min 0 min 0 W/m 29,0 km/h (5 Bft) 100,00 %
21.02.2020 19:28 8,3 C 7,8 C 7,2 C 77 % 1026,0 hPa 0,0 l/m 0 min 0 min 0 W/m 25,7 km/h (4 Bft) 100,00 %
21.02.2020 19:30 8,3 C 7,8 C 7,2 C 77 % 1026,0 hPa 0,0 l/m 0 min 0 min 0 W/m 22,5 km/h (4 Bft) 100,00 %
21.02.2020 19:32 8,3 C 7,8 C 7,2 C 77 % 1025,9 hPa 0,0 l/m 0 min 0 min 0 W/m 19,3 km/h (3 Bft) 97,87 %
21.02.2020 19:34 8,3 C 7,8 C 7,2 C 77 % 1025,9 hPa 0,0 l/m 0 min 0 min 0 W/m 35,4 km/h (5 Bft) 100,00 %
21.02.2020 19:36 8,3 C 7,8 C 7,2 C 77 % 1025,8 hPa 0,0 l/m 0 min 0 min 0 W/m 25,7 km/h (4 Bft) 100,00 %
21.02.2020 19:38 8,3 C 7,8 C 7,2 C 77 % 1025,8 hPa 0,0 l/m 0 min 0 min 0 W/m 25,7 km/h (4 Bft) 100,00 %
21.02.2020 19:40 8,3 C 7,8 C 7,2 C 77 % 1025,9 hPa 0,0 l/m 0 min 0 min 0 W/m 25,7 km/h (4 Bft) 100,00 %
21.02.2020 19:42 8,3 C 7,8 C 7,2 C 77 % 1025,9 hPa 0,0 l/m 0 min 0 min 0 W/m 25,7 km/h (4 Bft) 100,00 %
21.02.2020 19:44 8,3 C 7,8 C 7,2 C 76 % 1025,8 hPa 0,0 l/m 0 min 0 min 0 W/m 25,7 km/h (4 Bft) 100,00 %
21.02.2020 19:46 8,4 C 7,8 C 7,2 C 77 % 1025,9 hPa 0,0 l/m 0 min 0 min 0 W/m 25,7 km/h (4 Bft) 100,00 %
21.02.2020 19:48 8,3 C 7,8 C 7,2 C 76 % 1025,8 hPa 0,0 l/m 0 min 0 min 0 W/m 35,4 km/h (5 Bft) 97,87 %
21.02.2020 19:50 8,3 C 7,8 C 7,2 C 76 % 1025,7 hPa 0,0 l/m 0 min 0 min 0 W/m 22,5 km/h (4 Bft) 100,00 %
21.02.2020 19:52 8,3 C 7,8 C 7,2 C 76 % 1025,7 hPa 0,0 l/m 0 min 0 min 0 W/m 29,0 km/h (5 Bft) 97,87 %
21.02.2020 19:54 8,3 C 7,8 C 7,2 C 76 % 1025,7 hPa 0,0 l/m 0 min 0 min 0 W/m 45,1 km/h (6 Bft) 100,00 %
21.02.2020 19:56 8,3 C 7,8 C 7,2 C 76 % 1025,7 hPa 0,0 l/m 0 min 0 min 0 W/m 22,5 km/h (4 Bft) 100,00 %
21.02.2020 19:58 8,3 C 7,8 C 7,2 C 76 % 1025,7 hPa 0,0 l/m 0 min 0 min 0 W/m 29,0 km/h (5 Bft) 100,00 %
21.02.2020 20:00 8,3 C 7,8 C 7,2 C 76 % 1025,6 hPa 0,0 l/m 0 min 0 min 0 W/m 19,3 km/h (3 Bft) 100,00 %
21.02.2020 20:02 8,3 C 7,8 C 7,2 C 75 % 1025,7 hPa 0,0 l/m 0 min 0 min 0 W/m 19,3 km/h (3 Bft) 100,00 %
21.02.2020 20:04 8,3 C 7,8 C 7,2 C 75 % 1025,7 hPa 0,0 l/m 0 min 0 min 0 W/m 19,3 km/h (3 Bft) 100,00 %
21.02.2020 20:06 8,3 C 7,8 C 7,2 C 75 % 1025,7 hPa 0,0 l/m 0 min 0 min 0 W/m 38,6 km/h (5 Bft) 100,00 %
21.02.2020 20:08 8,3 C 7,8 C 7,2 C 75 % 1025,8 hPa 0,0 l/m 0 min 0 min 0 W/m 41,8 km/h (6 Bft) 100,00 %
21.02.2020 20:10 8,3 C 7,8 C 7,2 C 75 % 1025,9 hPa 0,0 l/m 0 min 0 min 0 W/m 22,5 km/h (4 Bft) 97,83 %
21.02.2020 20:12 8,3 C 7,8 C 7,2 C 75 % 1025,9 hPa 0,0 l/m 0 min 0 min 0 W/m 22,5 km/h (4 Bft) 100,00 %
21.02.2020 20:14 8,3 C 7,8 C 7,2 C 75 % 1025,9 hPa 0,0 l/m 0 min 0 min 0 W/m 19,3 km/h (3 Bft) 100,00 %
21.02.2020 20:16 8,3 C 7,2 C 7,2 C 75 % 1026,0 hPa 0,0 l/m 0 min 0 min 0 W/m 25,7 km/h (4 Bft) 97,87 %
21.02.2020 20:18 8,3 C 7,2 C 7,2 C 76 % 1026,0 hPa 0,0 l/m 0 min 0 min 0 W/m 19,3 km/h (3 Bft) 100,00 %
21.02.2020 20:20 8,3 C 7,8 C 7,2 C 75 % 1026,0 hPa 0,0 l/m 0 min 0 min 0 W/m 29,0 km/h (5 Bft) 97,87 %
21.02.2020 20:22 8,3 C 7,8 C 7,2 C 76 % 1026,0 hPa 0,0 l/m 0 min 0 min 0 W/m 25,7 km/h (4 Bft) 97,83 %
21.02.2020 20:24 8,2 C 7,8 C 7,2 C 76 % 1026,0 hPa 0,0 l/m 0 min 0 min 0 W/m 29,0 km/h (5 Bft) 95,74 %
21.02.2020 20:26 8,3 C 7,8 C 7,2 C 76 % 1026,0 hPa 0,0 l/m 0 min 0 min 0 W/m 32,2 km/h (5 Bft) 97,87 %
21.02.2020 20:28 8,3 C 7,8 C 7,2 C 76 % 1026,1 hPa 0,0 l/m 0 min 0 min 0 W/m 32,2 km/h (5 Bft) 95,74 %
21.02.2020 20:30 8,3 C 7,8 C 7,2 C 76 % 1026,1 hPa 0,0 l/m 0 min 0 min 0 W/m 29,0 km/h (5 Bft) 97,87 %
21.02.2020 20:32 8,2 C 7,2 C 7,2 C 76 % 1026,1 hPa 0,0 l/m 0 min 0 min 0 W/m 22,5 km/h (4 Bft) 97,87 %
21.02.2020 20:34 8,2 C 7,2 C 7,2 C 76 % 1026,1 hPa 0,0 l/m 0 min 0 min 0 W/m 16,1 km/h (3 Bft) 97,87 %
21.02.2020 20:36 8,2 C 7,2 C 7,2 C 76 % 1026,1 hPa 0,0 l/m 0 min 0 min 0 W/m 22,5 km/h (4 Bft) 97,87 %
21.02.2020 20:38 8,2 C 7,2 C 7,2 C 76 % 1026,1 hPa 0,0 l/m 0 min 0 min 0 W/m 25,7 km/h (4 Bft) 97,87 %
21.02.2020 20:40 8,2 C 7,2 C 6,7 C 76 % 1026,2 hPa 0,0 l/m 0 min 0 min 0 W/m 22,5 km/h (4 Bft) 95,74 %
21.02.2020 20:42 8,2 C 7,2 C 6,7 C 76 % 1026,1 hPa 0,0 l/m 0 min 0 min 0 W/m 22,5 km/h (4 Bft) 97,87 %
21.02.2020 20:44 8,2 C 7,2 C 6,7 C 76 % 1026,1 hPa 0,0 l/m 0 min 0 min 0 W/m 12,9 km/h (3 Bft) 95,74 %
21.02.2020 20:46 8,2 C 7,2 C 6,7 C 76 % 1025,9 hPa 0,0 l/m 0 min 0 min 0 W/m 19,3 km/h (3 Bft) 95,65 %
21.02.2020 20:48 8,2 C 7,2 C 6,7 C 76 % 1025,9 hPa 0,0 l/m 0 min 0 min 0 W/m 38,6 km/h (5 Bft) 97,87 %
21.02.2020 20:50 8,2 C 7,2 C 7,2 C 76 % 1025,9 hPa 0,0 l/m 0 min 0 min 0 W/m 32,2 km/h (5 Bft) 95,74 %
21.02.2020 20:52 8,2 C 7,2 C 7,2 C 76 % 1025,8 hPa 0,0 l/m 0 min 0 min 0 W/m 35,4 km/h (5 Bft) 95,74 %
21.02.2020 20:54 8,2 C 7,2 C 6,7 C 76 % 1026,0 hPa 0,0 l/m 0 min 0 min 0 W/m 22,5 km/h (4 Bft) 93,62 %
21.02.2020 20:56 8,2 C 7,2 C 7,2 C 76 % 1025,9 hPa 0,0 l/m 0 min 0 min 0 W/m 25,7 km/h (4 Bft) 95,65 %
21.02.2020 20:58 8,2 C 7,2 C 7,2 C 76 % 1025,9 hPa 0,0 l/m 0 min 0 min 0 W/m 29,0 km/h (5 Bft) 95,74 %
21.02.2020 21:00 8,2 C 7,8 C 7,2 C 76 % 1025,9 hPa 0,0 l/m 0 min 0 min 0 W/m 32,2 km/h (5 Bft) 97,87 %
21.02.2020 21:02 8,2 C 7,2 C 7,2 C 76 % 1025,9 hPa 0,0 l/m 0 min 0 min 0 W/m 22,5 km/h (4 Bft) 95,74 %
21.02.2020 21:04 8,2 C 7,2 C 7,2 C 76 % 1025,9 hPa 0,0 l/m 0 min 0 min 0 W/m 25,7 km/h (4 Bft) 95,74 %
21.02.2020 21:06 8,2 C 7,2 C 6,7 C 77 % 1025,9 hPa 0,0 l/m 0 min 0 min 0 W/m 32,2 km/h (5 Bft) 95,74 %
21.02.2020 21:08 8,2 C 7,2 C 6,7 C 77 % 1025,9 hPa 0,0 l/m 0 min 0 min 0 W/m 22,5 km/h (4 Bft) 97,83 %
21.02.2020 21:10 8,2 C 7,2 C 7,2 C 77 % 1025,9 hPa 0,0 l/m 0 min 0 min 0 W/m 29,0 km/h (5 Bft) 95,74 %
21.02.2020 21:12 8,2 C 7,2 C 6,7 C 77 % 1025,9 hPa 0,0 l/m 0 min 0 min 0 W/m 16,1 km/h (3 Bft) 95,74 %
21.02.2020 21:14 8,2 C 7,2 C 6,7 C 77 % 1025,9 hPa 0,0 l/m 0 min 0 min 0 W/m 22,5 km/h (4 Bft) 97,87 %
21.02.2020 21:16 8,2 C 7,2 C 6,7 C 77 % 1025,8 hPa 0,0 l/m 0 min 0 min 0 W/m 29,0 km/h (5 Bft) 93,62 %
21.02.2020 21:18 8,2 C 7,2 C 6,7 C 77 % 1025,8 hPa 0,0 l/m 0 min 0 min 0 W/m 29,0 km/h (5 Bft) 95,74 %
21.02.2020 21:20 8,1 C 7,2 C 6,7 C 77 % 1025,7 hPa 0,0 l/m 0 min 0 min 0 W/m 25,7 km/h (4 Bft) 95,65 %
21.02.2020 21:22 8,1 C 7,2 C 6,7 C 77 % 1025,6 hPa 0,0 l/m 0 min 0 min 0 W/m 29,0 km/h (5 Bft) 97,87 %
21.02.2020 21:24 8,1 C 7,2 C 6,7 C 77 % 1025,6 hPa 0,0 l/m 0 min 0 min 0 W/m 22,5 km/h (4 Bft) 95,74 %
21.02.2020 21:26 8,1 C 7,2 C 6,7 C 77 % 1025,5 hPa 0,0 l/m 0 min 0 min 0 W/m 29,0 km/h (5 Bft) 93,62 %
21.02.2020 21:28 8,1 C 7,2 C 6,7 C 77 % 1025,5 hPa 0,0 l/m 0 min 0 min 0 W/m 16,1 km/h (3 Bft) 93,62 %
21.02.2020 21:30 8,1 C 7,2 C 6,7 C 77 % 1025,3 hPa 0,0 l/m 0 min 0 min 0 W/m 22,5 km/h (4 Bft) 95,65 %
21.02.2020 21:32 8,1 C 7,2 C 6,7 C 77 % 1025,3 hPa 0,0 l/m 0 min 0 min 0 W/m 29,0 km/h (5 Bft) 93,62 %
21.02.2020 21:34 8,1 C 7,2 C 6,7 C 77 % 1025,3 hPa 0,0 l/m 0 min 0 min 0 W/m 29,0 km/h (5 Bft) 95,74 %
21.02.2020 21:36 8,1 C 7,2 C 6,7 C 77 % 1025,3 hPa 0,0 l/m 0 min 0 min 0 W/m 19,3 km/h (3 Bft) 95,74 %
21.02.2020 21:38 8,1 C 7,2 C 6,7 C 77 % 1025,4 hPa 0,0 l/m 0 min 0 min 0 W/m 38,6 km/h (5 Bft) 97,87 %
21.02.2020 21:40 8,1 C 7,2 C 6,7 C 77 % 1025,3 hPa 0,0 l/m 0 min 0 min 0 W/m 29,0 km/h (5 Bft) 95,74 %
21.02.2020 21:42 8,1 C 7,2 C 6,7 C 77 % 1025,4 hPa 0,0 l/m 0 min 0 min 0 W/m 41,8 km/h (6 Bft) 95,74 %
21.02.2020 21:44 8,1 C 7,2 C 6,7 C 77 % 1025,4 hPa 0,0 l/m 0 min 0 min 0 W/m 32,2 km/h (5 Bft) 97,83 %
21.02.2020 21:46 8,0 C 7,2 C 6,7 C 77 % 1025,4 hPa 0,0 l/m 0 min 0 min 0 W/m 25,7 km/h (4 Bft) 97,87 %
21.02.2020 21:48 8,1 C 7,2 C 6,7 C 77 % 1025,5 hPa 0,0 l/m 0 min 0 min 0 W/m 22,5 km/h (4 Bft) 97,87 %
21.02.2020 21:50 8,0 C 7,2 C 6,7 C 77 % 1025,5 hPa 0,0 l/m 0 min 0 min 0 W/m 25,7 km/h (4 Bft) 97,87 %
21.02.2020 21:52 8,0 C 7,2 C 6,7 C 77 % 1025,5 hPa 0,0 l/m 0 min 0 min 0 W/m 29,0 km/h (5 Bft) 97,87 %
21.02.2020 21:54 8,0 C 7,2 C 6,7 C 77 % 1025,5 hPa 0,0 l/m 0 min 0 min 0 W/m 22,5 km/h (4 Bft) 97,83 %
21.02.2020 21:56 8,0 C 7,2 C 6,7 C 77 % 1025,5 hPa 0,0 l/m 0 min 0 min 0 W/m 32,2 km/h (5 Bft) 97,87 %
21.02.2020 21:58 8,0 C 7,2 C 6,7 C 77 % 1025,5 hPa 0,0 l/m 0 min 0 min 0 W/m 35,4 km/h (5 Bft) 97,87 %
21.02.2020 22:00 8,0 C 7,2 C 6,7 C 77 % 1025,5 hPa 0,0 l/m 0 min 0 min 0 W/m 25,7 km/h (4 Bft) 97,87 %
21.02.2020 22:02 7,9 C 7,2 C 6,7 C 77 % 1025,5 hPa 0,0 l/m 0 min 0 min 0 W/m 25,7 km/h (4 Bft) 97,87 %
21.02.2020 22:04 7,9 C 7,2 C 6,7 C 78 % 1025,4 hPa 0,0 l/m 0 min 0 min 0 W/m 22,5 km/h (4 Bft) 97,73 %
21.02.2020 22:06 7,9 C 7,2 C 6,7 C 78 % 1025,5 hPa 0,0 l/m 0 min 0 min 0 W/m 16,1 km/h (3 Bft) 97,87 %
21.02.2020 22:08 7,9 C 7,2 C 6,7 C 78 % 1025,6 hPa 0,0 l/m 0 min 0 min 0 W/m 25,7 km/h (4 Bft) 97,87 %
21.02.2020 22:10 7,9 C 7,2 C 6,7 C 78 % 1025,6 hPa 0,0 l/m 0 min 0 min 0 W/m 22,5 km/h (4 Bft) 97,83 %
21.02.2020 22:12 7,9 C 7,2 C 6,7 C 78 % 1025,6 hPa 0,0 l/m 0 min 0 min 0 W/m 25,7 km/h (4 Bft) 97,87 %
21.02.2020 22:14 7,9 C 7,2 C 6,7 C 78 % 1025,6 hPa 0,0 l/m 0 min 0 min 0 W/m 19,3 km/h (3 Bft) 97,87 %
21.02.2020 22:16 7,9 C 7,2 C 6,7 C 78 % 1025,5 hPa 0,0 l/m 0 min 0 min 0 W/m 25,7 km/h (4 Bft) 97,87 %
21.02.2020 22:18 7,8 C 7,2 C 6,7 C 78 % 1025,5 hPa 0,0 l/m 0 min 0 min 0 W/m 19,3 km/h (3 Bft) 97,87 %
21.02.2020 22:20 7,8 C 7,2 C 6,7 C 78 % 1025,4 hPa 0,0 l/m 0 min 0 min 0 W/m 16,1 km/h (3 Bft) 97,87 %
21.02.2020 22:22 7,8 C 7,2 C 6,7 C 78 % 1025,4 hPa 0,0 l/m 0 min 0 min 0 W/m 25,7 km/h (4 Bft) 97,83 %
21.02.2020 22:24 7,8 C 7,2 C 6,7 C 78 % 1025,3 hPa 0,0 l/m 0 min 0 min 0 W/m 22,5 km/h (4 Bft) 95,74 %
21.02.2020 22:26 7,8 C 7,2 C 6,7 C 78 % 1025,3 hPa 0,0 l/m 0 min 0 min 0 W/m 29,0 km/h (5 Bft) 97,87 %
21.02.2020 22:28 7,8 C 7,2 C 6,7 C 78 % 1025,3 hPa 0,0 l/m 0 min 0 min 0 W/m 22,5 km/h (4 Bft) 100,00 %
21.02.2020 22:30 7,8 C 7,2 C 6,7 C 78 % 1025,3 hPa 0,0 l/m 0 min 0 min 0 W/m 32,2 km/h (5 Bft) 100,00 %
21.02.2020 22:32 7,8 C 7,2 C 6,7 C 78 % 1025,2 hPa 0,0 l/m 0 min 0 min 0 W/m 29,0 km/h (5 Bft) 100,00 %
21.02.2020 22:34 7,8 C 7,2 C 6,7 C 78 % 1025,2 hPa 0,0 l/m 0 min 0 min 0 W/m 38,6 km/h (5 Bft) 100,00 %
21.02.2020 22:36 7,7 C 7,2 C 6,7 C 78 % 1025,2 hPa 0,0 l/m 0 min 0 min 0 W/m 29,0 km/h (5 Bft) 100,00 %
21.02.2020 22:38 7,7 C 7,2 C 6,7 C 78 % 1025,2 hPa 0,0 l/m 0 min 0 min 0 W/m 19,3 km/h (3 Bft) 97,87 %
21.02.2020 22:40 7,7 C 7,2 C 6,7 C 78 % 1025,2 hPa 0,0 l/m 0 min 0 min 0 W/m 32,2 km/h (5 Bft) 100,00 %
21.02.2020 22:42 7,7 C 7,2 C 6,7 C 78 % 1025,2 hPa 0,0 l/m 0 min 0 min 0 W/m 29,0 km/h (5 Bft) 100,00 %
21.02.2020 22:44 7,7 C 7,2 C 6,7 C 78 % 1025,2 hPa 0,0 l/m 0 min 0 min 0 W/m 35,4 km/h (5 Bft) 100,00 %
21.02.2020 22:46 7,7 C 7,2 C 6,7 C 78 % 1025,2 hPa 0,0 l/m 0 min 0 min 0 W/m 22,5 km/h (4 Bft) 97,87 %
21.02.2020 22:48 7,7 C 7,2 C 6,7 C 78 % 1025,1 hPa 0,0 l/m 0 min 0 min 0 W/m 19,3 km/h (3 Bft) 100,00 %
21.02.2020 22:50 7,7 C 7,2 C 6,7 C 78 % 1025,2 hPa 0,0 l/m 0 min 0 min 0 W/m 41,8 km/h (6 Bft) 100,00 %
21.02.2020 22:52 7,7 C 7,2 C 6,7 C 78 % 1025,2 hPa 0,0 l/m 0 min 0 min 0 W/m 25,7 km/h (4 Bft) 100,00 %
21.02.2020 22:54 7,7 C 7,2 C 6,7 C 78 % 1025,2 hPa 0,0 l/m 0 min 0 min 0 W/m 32,2 km/h (5 Bft) 100,00 %
21.02.2020 22:56 7,7 C 7,2 C 6,7 C 78 % 1025,3 hPa 0,0 l/m 0 min 0 min 0 W/m 22,5 km/h (4 Bft) 95,65 %
21.02.2020 22:58 7,7 C 7,2 C 6,7 C 78 % 1025,2 hPa 0,0 l/m 0 min 0 min 0 W/m 19,3 km/h (3 Bft) 100,00 %
21.02.2020 23:00 7,7 C 7,2 C 6,7 C 78 % 1025,2 hPa 0,0 l/m 0 min 0 min 0 W/m 41,8 km/h (6 Bft) 100,00 %
21.02.2020 23:02 7,7 C 7,2 C 6,7 C 78 % 1025,1 hPa 0,0 l/m 0 min 0 min 0 W/m 25,7 km/h (4 Bft) 100,00 %
21.02.2020 23:04 7,7 C 7,2 C 6,7 C 78 % 1025,0 hPa 0,0 l/m 0 min 0 min 0 W/m 22,5 km/h (4 Bft) 100,00 %
21.02.2020 23:06 7,7 C 7,2 C 6,7 C 78 % 1025,0 hPa 0,0 l/m 0 min 0 min 0 W/m 19,3 km/h (3 Bft) 95,74 %
21.02.2020 23:08 7,7 C 7,2 C 6,7 C 78 % 1024,9 hPa 0,0 l/m 0 min 0 min 0 W/m 35,4 km/h (5 Bft) 97,83 %
21.02.2020 23:10 7,7 C 7,2 C 6,7 C 78 % 1024,9 hPa 0,0 l/m 0 min 0 min 0 W/m 32,2 km/h (5 Bft) 97,87 %
21.02.2020 23:12 7,7 C 7,2 C 6,7 C 78 % 1024,8 hPa 0,0 l/m 0 min 0 min 0 W/m 25,7 km/h (4 Bft) 95,74 %
21.02.2020 23:14 7,7 C 7,2 C 6,7 C 78 % 1024,8 hPa 0,0 l/m 0 min 0 min 0 W/m 25,7 km/h (4 Bft) 97,87 %
21.02.2020 23:16 7,7 C 7,2 C 6,7 C 78 % 1024,8 hPa 0,0 l/m 0 min 0 min 0 W/m 22,5 km/h (4 Bft) 97,87 %
21.02.2020 23:18 7,7 C 7,2 C 6,7 C 78 % 1024,8 hPa 0,0 l/m 0 min 0 min 0 W/m 29,0 km/h (5 Bft) 95,74 %
21.02.2020 23:20 7,7 C 7,2 C 6,7 C 78 % 1024,7 hPa 0,0 l/m 0 min 0 min 0 W/m 25,7 km/h (4 Bft) 95,65 %
21.02.2020 23:22 7,7 C 7,2 C 6,7 C 78 % 1024,7 hPa 0,0 l/m 0 min 0 min 0 W/m 35,4 km/h (5 Bft) 97,87 %
21.02.2020 23:24 7,7 C 7,2 C 6,7 C 78 % 1024,7 hPa 0,0 l/m 0 min 0 min 0 W/m 35,4 km/h (5 Bft) 97,87 %
21.02.2020 23:26 7,7 C 6,7 C 6,7 C 78 % 1024,6 hPa 0,0 l/m 0 min 0 min 0 W/m 22,5 km/h (4 Bft) 97,87 %
21.02.2020 23:28 7,7 C 7,2 C 6,7 C 78 % 1024,7 hPa 0,0 l/m 0 min 0 min 0 W/m 29,0 km/h (5 Bft) 97,87 %
21.02.2020 23:30 7,7 C 6,7 C 6,7 C 78 % 1024,6 hPa 0,0 l/m 0 min 0 min 0 W/m 22,5 km/h (4 Bft) 97,83 %
21.02.2020 23:32 7,7 C 6,7 C 6,7 C 78 % 1024,6 hPa 0,0 l/m 0 min 0 min 0 W/m 29,0 km/h (5 Bft) 97,87 %
21.02.2020 23:34 7,7 C 6,7 C 6,1 C 78 % 1024,6 hPa 0,0 l/m 0 min 0 min 0 W/m 22,5 km/h (4 Bft) 97,87 %
21.02.2020 23:36 7,7 C 6,7 C 6,7 C 78 % 1024,5 hPa 0,0 l/m 0 min 0 min 0 W/m 35,4 km/h (5 Bft) 97,87 %
21.02.2020 23:38 7,6 C 6,7 C 6,7 C 78 % 1024,5 hPa 0,0 l/m 0 min 0 min 0 W/m 35,4 km/h (5 Bft) 95,74 %
21.02.2020 23:40 7,6 C 6,7 C 6,7 C 78 % 1024,6 hPa 0,0 l/m 0 min 0 min 0 W/m 38,6 km/h (5 Bft) 95,74 %
21.02.2020 23:42 7,6 C 6,7 C 6,7 C 78 % 1024,4 hPa 0,0 l/m 0 min 0 min 0 W/m 29,0 km/h (5 Bft) 95,65 %
21.02.2020 23:44 7,6 C 6,7 C 6,7 C 78 % 1024,7 hPa 0,0 l/m 0 min 0 min 0 W/m 29,0 km/h (5 Bft) 93,62 %
21.02.2020 23:46 7,6 C 6,7 C 6,7 C 78 % 1024,6 hPa 0,0 l/m 0 min 0 min 0 W/m 32,2 km/h (5 Bft) 95,74 %
21.02.2020 23:48 7,6 C 6,7 C 6,7 C 78 % 1024,6 hPa 0,0 l/m 0 min 0 min 0 W/m 29,0 km/h (5 Bft) 93,62 %
21.02.2020 23:50 7,6 C 6,7 C 6,7 C 78 % 1024,5 hPa 0,0 l/m 0 min 0 min 0 W/m 32,2 km/h (5 Bft) 97,87 %
21.02.2020 23:52 7,6 C 6,7 C 6,1 C 78 % 1024,5 hPa 0,0 l/m 0 min 0 min 0 W/m 29,0 km/h (5 Bft) 97,87 %
21.02.2020 23:54 7,6 C 6,7 C 6,1 C 78 % 1024,4 hPa 0,0 l/m 0 min 0 min 0 W/m 22,5 km/h (4 Bft) 97,83 %
21.02.2020 23:56 7,6 C 6,7 C 6,1 C 78 % 1024,4 hPa 0,0 l/m 0 min 0 min 0 W/m 25,7 km/h (4 Bft) 100,00 %
21.02.2020 23:58 7,6 C 6,7 C 6,1 C 78 % 1024,4 hPa 0,0 l/m 0 min 0 min 0 W/m 22,5 km/h (4 Bft) 97,87 %
_ Min-Zeit 07:14 01:36 01:38 20:02 00:00 - - - - 01:16 18:12
Minimum _ 2,7 C 2,2 C 1,7 C 75 % 1017,1 hPa - - - - 6,4 km/h (2 Bft) 45,00 %
_ Max-Zeit 16:32 11:06 11:54 00:00 12:12 12:36 09:26 00:08 11:08 19:54 00:46
Maximum _ 9,1 C 12,2 C 8,9 C 94 % 1027,3 hPa 0,2 l/m 2 min 4 min 471 W/m 45,1 km/h
NW (6 Bft)
100,00 %
Durchschnitt _ 6,1 C 5,9 C 5,1 C 84 % 1024,7 hPa #0,2 l/m #3:14 h #18 min. 153 W/m 20,5 km/h (4 Bft) 97,14 %
© 2020 W. Hausmann